M I D A S
Marine Information and Data Acquisition System
Tripno 1847 of the Zeeleeuw from 2010-03-23 08:42:18 to 2010-03-23 15:07:02
Back to CruiseResearch ActivitiesStationsMapUnderway DataData graphs

EquipmentUnitsComment
TimeDGPSUTC
LatitudeDGPSDM.mWGS84
LongitudeDGPSDM.mWGS84
TemperatureSBE03/SBE38deg celciusITS90
ConductivitySBE21S/mITS90
SalinitySBE21 Practical Salinity Units
ChlorophylAChelsea fluorimeterg/lCalibrated in Aceton
Missing or incorrect values are displayed as -999
Sea surface data collected by the RV Zeeleeuw from 2010-03-23 08:38:44 to 2010-03-23 15:08:08
                                                                                    Next 1000 lines
Time Latitude Longitude Temperature Conductivity Salinity ChlorophylA
2010-03-23 08:38:54 51°13.661 2°55.957 14.7826 0.061555 0.372783 -0.025495
2010-03-23 08:38:59 51°13.662 2°55.955 14.7718 0.061555 0.372783 -0.025495
2010-03-23 08:39:04 51°13.663 2°55.953 14.8222 0.061555 0.372783 -0.025495
2010-03-23 08:39:09 51°13.663 2°55.95 14.8307 0.061555 0.372783 -0.025495
2010-03-23 08:39:14 51°13.664 2°55.947 14.7348 0.061555 0.37279 -0.025495
2010-03-23 08:39:19 51°13.665 2°55.943 14.823 0.061555 0.37279 -0.025495
2010-03-23 08:39:25 51°13.667 2°55.938 14.7823 0.061555 0.37279 -0.025495
2010-03-23 08:39:30 51°13.668 2°55.933 14.794 0.061555 0.37279 -0.025495
2010-03-23 08:39:36 51°13.669 2°55.927 14.7895 0.061555 0.372798 -0.025495
2010-03-23 08:39:41 51°13.671 2°55.921 14.7919 0.061555 0.372798 -0.025495
2010-03-23 08:39:47 51°13.672 2°55.914 14.7934 0.061555 0.372798 -0.025495
2010-03-23 08:39:53 51°13.674 2°55.905 14.7969 0.061555 0.372798 -0.025495
2010-03-23 08:39:57 51°13.675 2°55.9 14.7982 0.061555 0.372798 -0.060319
2010-03-23 08:40:02 51°13.676 2°55.893 14.8008 0.061555 0.372798 -0.060319
2010-03-23 08:40:07 51°13.677 2°55.886 14.8055 0.061555 0.372798 -0.025495
2010-03-23 08:40:12 51°13.679 2°55.878 14.8112 0.061555 0.372806 -0.025495
2010-03-23 08:40:17 51°13.68 2°55.87 14.7924 0.061555 0.372806 -0.025495
2010-03-23 08:40:22 51°13.682 2°55.862 14.8088 0.061555 0.372806 -0.025495
2010-03-23 08:40:28 51°13.683 2°55.853 14.8303 0.061555 0.372806 -0.025495
2010-03-23 08:40:32 51°13.684 2°55.846 14.8205 0.061555 0.372806 -0.025495
2010-03-23 08:40:38 51°13.686 2°55.836 14.8359 0.061555 0.372813 -0.025495
2010-03-23 08:40:42 51°13.687 2°55.83 14.8224 0.061555 0.372813 -0.025495
2010-03-23 08:40:48 51°13.689 2°55.82 14.8278 0.061555 0.372813 -0.025495
2010-03-23 08:40:52 51°13.69 2°55.814 14.8211 0.061555 0.372813 -0.025495
2010-03-23 08:40:57 51°13.692 2°55.807 14.8179 0.061555 0.372813 -0.025495
2010-03-23 08:41:02 51°13.693 2°55.799 14.8197 0.061555 0.372813 -0.025495
2010-03-23 08:41:07 51°13.695 2°55.792 14.8219 0.061555 0.372821 -0.025495
2010-03-23 08:41:12 51°13.696 2°55.784 14.8177 0.061555 0.372821 -0.025495
2010-03-23 08:41:17 51°13.697 2°55.777 14.818 0.061555 0.372821 -0.025495
2010-03-23 08:41:22 51°13.698 2°55.771 14.8176 0.061555 0.372821 -0.025495
2010-03-23 08:41:27 51°13.699 2°55.764 14.8189 0.061555 0.372828 -0.025495
2010-03-23 08:41:32 51°13.7 2°55.758 14.8188 0.061555 0.372828 -0.025495
2010-03-23 08:41:37 51°13.701 2°55.751 14.8189 0.061555 0.372828 -0.025495
2010-03-23 08:41:42 51°13.702 2°55.746 14.8129 0.061555 0.372836 -0.025495
2010-03-23 08:41:46 51°13.703 2°55.741 14.8162 0.061555 0.372836 -0.025495
2010-03-23 08:41:51 51°13.703 2°55.737 14.8178 0.061555 0.372836 -0.025495
2010-03-23 08:41:56 51°13.704 2°55.733 14.8399 0.061555 0.372843 -0.025495
2010-03-23 08:42:01 51°13.704 2°55.73 14.8239 0.061555 0.372843 -0.025495
2010-03-23 08:42:06 51°13.704 2°55.728 14.8248 0.061555 0.372843 -0.025495
2010-03-23 08:42:11 51°13.704 2°55.726 14.8152 0.061555 0.372843 -0.025495
2010-03-23 08:42:16 51°13.705 2°55.725 14.8311 0.061555 0.372843 -0.025495
2010-03-23 08:42:21 51°13.705 2°55.724 14.8182 0.061555 0.372851 -0.025495
2010-03-23 08:42:26 51°13.706 2°55.724 14.8266 0.061555 0.372851 -0.025495
2010-03-23 08:42:30 51°13.706 2°55.723 14.8145 0.061555 0.372851 -0.025495
2010-03-23 08:42:35 51°13.706 2°55.723 14.8146 0.061555 0.372843 -0.025495
2010-03-23 08:42:40 51°13.707 2°55.723 14.8142 0.061555 0.372851 -0.025495
2010-03-23 08:42:45 51°13.708 2°55.723 14.8095 0.061555 0.372851 -0.025495
2010-03-23 08:42:50 51°13.709 2°55.723 14.7994 0.061555 0.372858 -0.060319
2010-03-23 08:42:55 51°13.71 2°55.723 14.7948 0.061555 0.372858 -0.025495
2010-03-23 08:43:00 51°13.711 2°55.724 14.7967 0.061555 0.372858 -0.025495
2010-03-23 08:43:05 51°13.712 2°55.724 14.8043 0.061555 0.372858 -0.025495
2010-03-23 08:43:10 51°13.713 2°55.724 14.8058 0.061555 0.372858 -0.025495
2010-03-23 08:43:16 51°13.715 2°55.725 14.8075 0.061555 0.372858 -0.060319
2010-03-23 08:43:21 51°13.716 2°55.725 14.8092 0.061555 0.372858 -0.025495
2010-03-23 08:43:27 51°13.718 2°55.725 14.8078 0.061555 0.372858 -0.025495
2010-03-23 08:43:32 51°13.72 2°55.726 14.8077 0.061555 0.372858 -0.025495
2010-03-23 08:43:37 51°13.721 2°55.726 14.807 0.061555 0.372858 -0.025495
2010-03-23 08:43:42 51°13.723 2°55.726 14.8096 0.061555 0.372866 -0.025495
2010-03-23 08:43:47 51°13.725 2°55.725 14.8102 0.061555 0.372866 -0.025495
2010-03-23 08:43:53 51°13.728 2°55.725 14.8132 0.061555 0.372866 -0.025495
2010-03-23 08:43:57 51°13.73 2°55.724 14.811 0.061555 0.372866 -0.025495
2010-03-23 08:44:02 51°13.732 2°55.723 14.8206 0.061555 0.372866 -0.025495
2010-03-23 08:44:07 51°13.735 2°55.722 14.8648 0.061555 0.372866 -0.025495
2010-03-23 08:44:12 51°13.738 2°55.72 14.8734 0.061555 0.372874 -0.025495
2010-03-23 08:44:17 51°13.741 2°55.717 14.8621 0.061555 0.372874 -0.025495
2010-03-23 08:44:22 51°13.745 2°55.715 14.8626 0.061555 0.372874 -0.025495
2010-03-23 08:44:26 51°13.748 2°55.712 14.8429 0.061555 0.372874 -0.025495
2010-03-23 08:44:31 51°13.753 2°55.708 14.836 0.061555 0.372874 -0.025495
2010-03-23 08:44:36 51°13.758 2°55.703 14.7656 0.061555 0.372866 -0.060319
2010-03-23 08:44:41 51°13.763 2°55.698 14.7751 0.061555 0.372858 -0.060319
2010-03-23 08:44:46 51°13.77 2°55.692 14.7122 0.061555 0.372858 -0.025495
2010-03-23 08:44:50 51°13.775 2°55.687 14.6761 0.061555 0.372851 -0.025495
2010-03-23 08:44:56 51°13.783 2°55.68 14.7028 0.061555 0.372858 -0.025495
2010-03-23 08:45:00 51°13.789 2°55.675 14.681 0.061555 0.372858 -0.025495
2010-03-23 08:45:05 51°13.797 2°55.668 14.6642 0.061555 0.372858 -0.025495
2010-03-23 08:45:10 51°13.805 2°55.661 14.641 0.061555 0.372866 -0.060319
2010-03-23 08:45:15 51°13.813 2°55.654 14.6697 0.061555 0.372866 -0.025495
2010-03-23 08:45:20 51°13.823 2°55.647 14.6876 0.061555 0.372881 -0.025495
2010-03-23 08:45:25 51°13.832 2°55.64 14.6725 0.061555 0.372881 -0.025495
2010-03-23 08:45:29 51°13.839 2°55.635 14.692 0.061555 0.372881 -0.025495
2010-03-23 08:45:34 51°13.848 2°55.627 14.647 0.061555 0.372889 -0.060319
2010-03-23 08:45:39 51°13.857 2°55.618 14.6545 0.061555 0.372896 -0.060319
2010-03-23 08:45:44 51°13.867 2°55.611 14.5984 0.061555 0.372896 -0.060319
2010-03-23 08:45:49 51°13.877 2°55.603 14.6293 0.061555 0.372896 -0.025495
2010-03-23 08:45:54 51°13.887 2°55.595 14.6626 0.061555 0.372896 -0.025495
2010-03-23 08:45:58 51°13.895 2°55.589 14.6406 0.061555 0.372896 -0.025495
2010-03-23 08:46:04 51°13.908 2°55.58 14.5876 0.061555 0.372904 -0.025495
2010-03-23 08:46:09 51°13.918 2°55.572 14.5562 0.061555 0.372904 -0.060319
2010-03-23 08:46:14 51°13.928 2°55.563 14.6165 0.061555 0.372904 -0.025495
2010-03-23 08:46:18 51°13.937 2°55.557 14.6413 0.061555 0.372911 -0.060319
2010-03-23 08:46:24 51°13.95 2°55.547 14.5927 0.061555 0.372911 -0.025495
2010-03-23 08:46:29 51°13.961 2°55.539 14.6414 0.061555 0.372911 -0.025495
2010-03-23 08:46:34 51°13.972 2°55.531 14.6554 0.061555 0.372919 -0.060319
2010-03-23 08:46:38 51°13.981 2°55.524 14.6461 0.061555 0.372927 -0.060319
2010-03-23 08:46:44 51°13.994 2°55.514 14.6477 0.061555 0.372919 -0.025495
2010-03-23 08:46:49 51°14.006 2°55.506 14.654 0.061555 0.372927 -0.025495
2010-03-23 08:46:54 51°14.017 2°55.498 14.6525 0.061555 0.372927 -0.060319
2010-03-23 08:46:58 51°14.027 2°55.492 14.6113 0.061555 0.372927 -0.060319
2010-03-23 08:47:04 51°14.041 2°55.482 14.5949 0.061555 0.372927 -0.025495
2010-03-23 08:47:09 51°14.052 2°55.474 14.6836 0.061555 0.372927 -0.025495
2010-03-23 08:47:14 51°14.064 2°55.465 14.6418 0.061555 0.372934 -0.060319
2010-03-23 08:47:19 51°14.076 2°55.457 14.6425 0.061555 0.372934 -0.025495
2010-03-23 08:47:24 51°14.088 2°55.448 14.6581 0.061555 0.372942 -0.025495
2010-03-23 08:47:29 51°14.1 2°55.44 14.6889 0.061555 0.372942 -0.025495
2010-03-23 08:47:34 51°14.112 2°55.431 14.6941 0.061555 0.372942 -0.025495
2010-03-23 08:47:38 51°14.121 2°55.424 14.6962 0.061555 0.372942 -0.060319
2010-03-23 08:47:44 51°14.135 2°55.413 14.667 0.061555 0.372949 -0.025495
2010-03-23 08:47:49 51°14.147 2°55.403 14.6496 0.061555 0.372949 -0.060319
2010-03-23 08:47:54 51°14.159 2°55.393 14.6605 0.061555 0.372949 -0.025495
2010-03-23 08:47:58 51°14.168 2°55.386 14.7265 0.061555 0.372949 -0.025495
2010-03-23 08:48:04 51°14.183 2°55.373 14.6545 0.061555 0.372957 -0.060319
2010-03-23 08:48:09 51°14.195 2°55.362 14.7126 0.061555 0.372957 -0.060319
2010-03-23 08:48:14 51°14.207 2°55.352 14.7755 0.061555 0.372957 -0.060319
2010-03-23 08:48:18 51°14.216 2°55.342 14.6445 0.061555 0.372972 -0.060319
2010-03-23 08:48:24 51°14.23 2°55.328 14.572 0.061555 0.372964 -0.060319
2010-03-23 08:48:29 51°14.242 2°55.315 14.5373 0.061555 0.372964 -0.060319
2010-03-23 08:48:34 51°14.254 2°55.303 14.6706 0.061555 0.372957 -0.060319
2010-03-23 08:48:38 51°14.264 2°55.294 14.5638 0.061555 0.372964 -0.060319
2010-03-23 08:48:44 51°14.278 2°55.279 14.5258 0.061555 0.372964 -0.025495
2010-03-23 08:48:49 51°14.29 2°55.266 14.662 0.061555 0.372972 -0.060319
2010-03-23 08:48:54 51°14.302 2°55.254 14.6254 0.061555 0.372972 -0.060319
2010-03-23 08:48:58 51°14.312 2°55.243 14.6068 0.061555 0.372972 -0.060319
2010-03-23 08:49:04 51°14.326 2°55.228 14.71 0.061555 0.37298 -0.060319
2010-03-23 08:49:09 51°14.338 2°55.215 14.6097 0.061555 0.37298 -0.060319
2010-03-23 08:49:14 51°14.35 2°55.202 14.5445 0.061555 0.372987 -0.060319
2010-03-23 08:49:19 51°14.363 2°55.189 14.6674 0.061555 0.372987 -0.060319
2010-03-23 08:49:24 51°14.375 2°55.176 14.57 0.061555 0.372987 -0.025495
2010-03-23 08:49:29 51°14.388 2°55.163 14.668 0.061555 0.372987 -0.025495
2010-03-23 08:49:34 51°14.4 2°55.15 14.6273 0.061555 0.372995 -0.025495
2010-03-23 08:49:38 51°14.41 2°55.139 14.5263 0.061555 0.372995 -0.060319
2010-03-23 08:49:44 51°14.425 2°55.123 14.5054 0.061555 0.372995 -0.025495
2010-03-23 08:49:49 51°14.437 2°55.11 14.5876 0.061555 0.372995 -0.060319
2010-03-23 08:49:54 51°14.45 2°55.097 14.5982 0.061555 0.373002 -0.025495
2010-03-23 08:49:58 51°14.46 2°55.087 14.6422 0.061555 0.373002 -0.025495
2010-03-23 08:50:04 51°14.475 2°55.07 14.5558 0.061555 0.37301 -0.060319
2010-03-23 08:50:09 51°14.488 2°55.057 14.6162 0.061555 0.37301 -0.060319
2010-03-23 08:50:14 51°14.501 2°55.044 14.6295 0.061555 0.373017 -0.025495
2010-03-23 08:50:18 51°14.511 2°55.033 14.6398 0.061555 0.373025 -0.060319
2010-03-23 08:50:24 51°14.526 2°55.016 14.5121 0.061555 0.373025 -0.025495
2010-03-23 08:50:29 51°14.539 2°55.001 14.6055 0.061555 0.373025 -0.025495
2010-03-23 08:50:34 51°14.552 2°54.987 14.6682 0.061555 0.373033 -0.060319
2010-03-23 08:50:38 51°14.562 2°54.975 14.6546 0.061555 0.373033 -0.060319
2010-03-23 08:50:44 51°14.577 2°54.956 14.596 0.061555 0.37304 -0.060319
2010-03-23 08:50:49 51°14.589 2°54.939 14.4737 0.061555 0.373048 -0.060319
2010-03-23 08:50:54 51°14.602 2°54.922 14.5068 0.061555 0.37304 -0.060319
2010-03-23 08:50:59 51°14.614 2°54.905 14.4677 0.061555 0.37304 -0.060319
2010-03-23 08:51:04 51°14.626 2°54.887 14.4635 0.061555 0.373025 -0.060319
2010-03-23 08:51:09 51°14.638 2°54.87 14.394 0.061555 0.373017 -0.060319
2010-03-23 08:51:14 51°14.651 2°54.852 14.4017 0.061555 0.373017 -0.060319
2010-03-23 08:51:18 51°14.662 2°54.839 14.555 0.061555 0.373025 -0.060319
2010-03-23 08:51:24 51°14.677 2°54.818 14.6549 0.061555 0.373048 -0.060319
2010-03-23 08:51:29 51°14.69 2°54.8 14.6691 0.061555 0.373048 -0.060319
2010-03-23 08:51:34 51°14.701 2°54.78 14.6854 0.061555 0.373086 -0.060319
2010-03-23 08:51:39 51°14.712 2°54.757 14.6597 0.061555 0.373108 -0.060319
2010-03-23 08:51:44 51°14.721 2°54.734 14.6332 0.061555 0.373116 -0.060319
2010-03-23 08:51:49 51°14.73 2°54.71 14.5826 0.061555 0.373108 -0.060319
2010-03-23 08:51:54 51°14.738 2°54.685 14.6206 0.061555 0.373101 -0.025495
2010-03-23 08:51:58 51°14.743 2°54.664 14.6382 0.061555 0.373101 -0.025495
2010-03-23 08:52:04 51°14.749 2°54.632 14.6606 0.061555 0.373101 -0.060319
2010-03-23 08:52:09 51°14.752 2°54.604 14.6459 0.061555 0.373116 -0.060319
2010-03-23 08:52:14 51°14.754 2°54.576 14.6575 0.061555 0.373123 -0.025495
2010-03-23 08:52:18 51°14.753 2°54.554 14.6069 0.061555 0.373131 -0.060319
2010-03-23 08:52:24 51°14.751 2°54.521 14.4963 0.061555 0.373139 -0.060319
2010-03-23 08:52:29 51°14.748 2°54.494 14.4481 0.061555 0.373139 -0.060319
2010-03-23 08:52:34 51°14.744 2°54.466 14.4061 0.061555 0.373123 -0.060319
2010-03-23 08:52:38 51°14.741 2°54.444 14.3737 0.061555 0.373108 -0.060319
2010-03-23 08:52:44 51°14.736 2°54.41 14.5506 0.061555 0.373093 -0.060319
2010-03-23 08:52:49 51°14.731 2°54.383 14.5772 0.061555 0.373108 -0.060319
2010-03-23 08:52:54 51°14.724 2°54.357 14.6253 0.061555 0.373131 -0.025495
2010-03-23 08:52:58 51°14.718 2°54.338 14.6131 0.061555 0.373131 -0.025495
2010-03-23 08:53:04 51°14.705 2°54.311 14.5666 0.061555 0.373146 -0.060319
2010-03-23 08:53:09 51°14.694 2°54.291 14.5533 0.061555 0.373161 -0.060319
2010-03-23 08:53:14 51°14.681 2°54.274 14.4937 0.061555 0.373161 -0.060319
2010-03-23 08:53:18 51°14.67 2°54.261 14.4651 0.061555 0.373146 -0.060319
2010-03-23 08:53:24 51°14.654 2°54.24 14.381 0.061555 0.373131 -0.060319
2010-03-23 08:53:29 51°14.639 2°54.225 14.2773 0.061555 0.373131 -0.060319
2010-03-23 08:53:34 51°14.624 2°54.21 14.0646 0.061555 0.373116 -0.060319
2010-03-23 08:53:39 51°14.609 2°54.194 14.0985 0.061555 0.373093 -0.060319
2010-03-23 08:53:44 51°14.594 2°54.176 14.0706 0.061555 0.37307 -0.060319
2010-03-23 08:53:49 51°14.58 2°54.157 14.0848 0.061555 0.37307 -0.060319
2010-03-23 08:53:54 51°14.566 2°54.137 14.2101 0.061555 0.373078 -0.025495
2010-03-23 08:53:59 51°14.552 2°54.116 14.22 0.061555 0.373078 -0.025495
2010-03-23 08:54:04 51°14.538 2°54.094 14.2785 0.061555 0.373093 -0.060319
2010-03-23 08:54:09 51°14.524 2°54.072 14.287 0.061555 0.373123 -0.060319
2010-03-23 08:54:14 51°14.51 2°54.052 14.3023 0.061555 0.373139 -0.060319
2010-03-23 08:54:18 51°14.499 2°54.035 14.3145 0.061555 0.373154 -0.060319
2010-03-23 08:54:24 51°14.481 2°54.009 14.2935 0.061555 0.373154 -0.060319
2010-03-23 08:54:29 51°14.467 2°53.988 14.2863 0.061555 0.373154 -0.060319
2010-03-23 08:54:34 51°14.452 2°53.967 14.2843 0.061555 0.373154 -0.060319
2010-03-23 08:54:39 51°14.437 2°53.947 14.274 0.061555 0.373154 -0.060319
2010-03-23 08:54:44 51°14.423 2°53.925 14.3354 0.061555 0.373146 -0.060319
2010-03-23 08:54:49 51°14.408 2°53.904 14.2484 0.061555 0.373139 -0.060319
2010-03-23 08:54:54 51°14.394 2°53.881 14.2726 0.061555 0.373154 -0.060319
2010-03-23 08:54:58 51°14.383 2°53.863 14.208 0.061555 0.373154 -0.060319
2010-03-23 08:55:04 51°14.366 2°53.836 14.3207 0.061555 0.373161 -0.060319
2010-03-23 08:55:09 51°14.353 2°53.812 14.215 0.061555 0.373184 -0.060319
2010-03-23 08:55:14 51°14.339 2°53.789 14.3395 0.061555 0.373184 -0.060319
2010-03-23 08:55:18 51°14.329 2°53.769 14.2415 0.061555 0.373207 -0.060319
2010-03-23 08:55:24 51°14.313 2°53.741 14.251 0.061555 0.373207 -0.060319
2010-03-23 08:55:29 51°14.3 2°53.716 14.2279 0.061555 0.373207 -0.060319
2010-03-23 08:55:34 51°14.287 2°53.692 14.2452 0.061555 0.373207 -0.060319
2010-03-23 08:55:38 51°14.277 2°53.671 14.2292 0.061555 0.373207 -0.060319
2010-03-23 08:55:44 51°14.262 2°53.642 14.2495 0.061555 0.373192 -0.060319
2010-03-23 08:55:49 51°14.25 2°53.616 14.2989 0.061555 0.373192 -0.060319
2010-03-23 08:55:54 51°14.238 2°53.591 14.184 0.061555 0.373176 -0.060319
2010-03-23 08:55:58 51°14.228 2°53.571 14.2995 0.061555 0.373176 -0.060319
2010-03-23 08:56:04 51°14.214 2°53.539 14.2012 0.061555 0.373192 -0.060319
2010-03-23 08:56:09 51°14.202 2°53.513 14.2978 0.061555 0.373184 -0.060319
2010-03-23 08:56:14 51°14.19 2°53.487 14.2704 0.061555 0.373207 -0.060319
2010-03-23 08:56:18 51°14.181 2°53.466 14.2867 0.061555 0.373222 -0.060319
2010-03-23 08:56:24 51°14.167 2°53.435 14.2886 0.061555 0.373237 -0.060319
2010-03-23 08:56:29 51°14.155 2°53.409 14.2957 0.061555 0.373237 -0.060319
2010-03-23 08:56:34 51°14.142 2°53.384 14.2862 0.061555 0.373252 -0.060319
2010-03-23 08:56:38 51°14.133 2°53.363 14.2655 0.061555 0.373252 -0.060319
2010-03-23 08:56:44 51°14.119 2°53.332 14.2435 0.061555 0.37326 -0.060319
2010-03-23 08:56:49 51°14.107 2°53.306 14.3215 0.061555 0.37326 -0.060319
2010-03-23 08:56:54 51°14.095 2°53.28 14.319 0.061555 0.373252 -0.060319
2010-03-23 08:56:58 51°14.085 2°53.259 14.3246 0.061555 0.373252 -0.060319
2010-03-23 08:57:04 51°14.07 2°53.229 14.291 0.061555 0.37326 -0.060319
2010-03-23 08:57:09 51°14.057 2°53.204 14.3397 0.061555 0.373252 -0.060319
2010-03-23 08:57:14 51°14.044 2°53.18 14.2553 0.061555 0.37326 -0.060319
2010-03-23 08:57:18 51°14.033 2°53.161 14.3198 0.061555 0.373252 -0.060319
2010-03-23 08:57:24 51°14.017 2°53.132 14.269 0.061555 0.373252 -0.060319
2010-03-23 08:57:29 51°14.004 2°53.108 14.2942 0.061555 0.373252 -0.060319
2010-03-23 08:57:34 51°13.99 2°53.085 14.3296 0.061555 0.37326 -0.060319
2010-03-23 08:57:38 51°13.979 2°53.066 14.2603 0.061555 0.373267 -0.060319
2010-03-23 08:57:44 51°13.962 2°53.037 14.2654 0.061555 0.373267 -0.060319
2010-03-23 08:57:49 51°13.949 2°53.014 14.2791 0.061555 0.373283 -0.060319
2010-03-23 08:57:54 51°13.935 2°52.991 14.2805 0.061555 0.373283 -0.060319
2010-03-23 08:57:58 51°13.924 2°52.972 14.3077 0.061555 0.373283 -0.060319
2010-03-23 08:58:04 51°13.907 2°52.944 14.2764 0.061555 0.37329 -0.060319
2010-03-23 08:58:09 51°13.893 2°52.921 14.3318 0.061555 0.37329 -0.060319
2010-03-23 08:58:14 51°13.88 2°52.897 14.2305 0.061555 0.373298 -0.060319
2010-03-23 08:58:18 51°13.869 2°52.879 14.201 0.061555 0.373298 -0.060319
2010-03-23 08:58:24 51°13.853 2°52.85 14.2887 0.061555 0.373298 -0.025495
2010-03-23 08:58:29 51°13.84 2°52.825 14.1674 0.061555 0.373298 -0.025495
2010-03-23 08:58:34 51°13.827 2°52.801 14.2521 0.061555 0.373298 -0.060319
2010-03-23 08:58:39 51°13.816 2°52.774 14.2517 0.061555 0.373298 -0.060319
2010-03-23 08:58:44 51°13.804 2°52.749 14.2488 0.061555 0.373298 -0.060319
2010-03-23 08:58:49 51°13.794 2°52.721 14.2215 0.061555 0.373321 -0.060319
2010-03-23 08:58:54 51°13.782 2°52.695 14.2097 0.061555 0.373321 -0.060319
2010-03-23 08:58:58 51°13.774 2°52.673 14.283 0.061555 0.373321 -0.060319
2010-03-23 08:59:04 51°13.762 2°52.64 14.1904 0.061555 0.373336 -0.060319
2010-03-23 08:59:09 51°13.751 2°52.613 14.302 0.061555 0.373328 -0.060319
2010-03-23 08:59:14 51°13.742 2°52.584 14.1827 0.061555 0.373351 -0.060319
2010-03-23 08:59:18 51°13.734 2°52.562 14.2834 0.061555 0.373343 -0.060319
2010-03-23 08:59:24 51°13.723 2°52.528 14.1718 0.061555 0.373343 -0.060319
2010-03-23 08:59:29 51°13.714 2°52.5 14.2814 0.061555 0.373343 -0.060319
2010-03-23 08:59:34 51°13.704 2°52.471 14.2368 0.061555 0.373366 -0.060319
2010-03-23 08:59:38 51°13.696 2°52.449 14.2664 0.061453 0.372705 -0.060319
2010-03-23 08:59:44 51°13.686 2°52.414 14.2315 0.061555 0.373358 -0.060319
2010-03-23 08:59:49 51°13.676 2°52.386 14.2788 0.061555 0.373358 -0.060319
2010-03-23 08:59:54 51°13.667 2°52.357 14.2548 0.061555 0.373366 -0.060319
2010-03-23 08:59:58 51°13.659 2°52.335 14.2909 0.061555 0.373366 -0.060319
2010-03-23 09:00:04 51°13.648 2°52.301 14.2493 0.061453 0.37272 -0.060319
2010-03-23 09:00:09 51°13.638 2°52.272 14.2831 0.061453 0.372728 -0.060319
2010-03-23 09:00:14 51°13.629 2°52.244 14.2984 0.061453 0.372728 -0.060319
2010-03-23 09:00:18 51°13.621 2°52.221 14.252 0.061453 0.372736 -0.060319
2010-03-23 09:00:24 51°13.609 2°52.188 14.2913 0.061453 0.372751 -0.025495
2010-03-23 09:00:29 51°13.599 2°52.16 14.2813 0.061453 0.372751 -0.025495
2010-03-23 09:00:34 51°13.59 2°52.132 14.2461 0.061453 0.372743 -0.060319
2010-03-23 09:00:38 51°13.581 2°52.11 14.2484 0.061453 0.372751 -0.025495
2010-03-23 09:00:44 51°13.569 2°52.077 14.2791 0.061453 0.372758 -0.060319
2010-03-23 09:00:49 51°13.559 2°52.049 14.2488 0.061453 0.372758 -0.025495
2010-03-23 09:00:54 51°13.549 2°52.022 14.2565 0.061453 0.372758 -0.060319
2010-03-23 09:00:58 51°13.541 2°51.999 14.2602 0.061453 0.372758 -0.060319
2010-03-23 09:01:04 51°13.529 2°51.966 14.2895 0.061453 0.372758 -0.060319
2010-03-23 09:01:09 51°13.518 2°51.939 14.2419 0.061453 0.372766 -0.060319
2010-03-23 09:01:14 51°13.508 2°51.911 14.3076 0.061453 0.372758 -0.060319
2010-03-23 09:01:19 51°13.498 2°51.884 14.2004 0.061453 0.372773 -0.060319
2010-03-23 09:01:24 51°13.488 2°51.856 14.2896 0.061453 0.372773 -0.060319
2010-03-23 09:01:29 51°13.478 2°51.828 14.2189 0.061453 0.372773 -0.060319
2010-03-23 09:01:34 51°13.468 2°51.801 14.2929 0.061453 0.372781 -0.060319
2010-03-23 09:01:38 51°13.46 2°51.778 14.2432 0.061453 0.372796 -0.060319
2010-03-23 09:01:44 51°13.448 2°51.745 14.3057 0.061453 0.372796 -0.060319
2010-03-23 09:01:49 51°13.437 2°51.718 14.2766 0.061453 0.372804 -0.060319
2010-03-23 09:01:54 51°13.427 2°51.69 14.2456 0.061453 0.372796 -0.060319
2010-03-23 09:01:58 51°13.419 2°51.668 14.2762 0.061453 0.372796 -0.060319
2010-03-23 09:02:04 51°13.407 2°51.635 14.2573 0.061453 0.372804 -0.060319
2010-03-23 09:02:09 51°13.396 2°51.608 14.2819 0.061453 0.372804 -0.060319
2010-03-23 09:02:14 51°13.386 2°51.58 14.297 0.061453 0.372811 -0.060319
2010-03-23 09:02:18 51°13.378 2°51.558 14.2389 0.061453 0.372811 -0.060319
2010-03-23 09:02:24 51°13.365 2°51.525 14.2933 0.061453 0.372811 -0.060319
2010-03-23 09:02:29 51°13.355 2°51.498 14.2747 0.061453 0.372811 -0.060319
2010-03-23 09:02:34 51°13.345 2°51.47 14.2591 0.061453 0.372819 -0.060319
2010-03-23 09:02:38 51°13.337 2°51.448 14.2835 0.061453 0.372827 -0.060319
2010-03-23 09:02:44 51°13.324 2°51.415 14.2694 0.061453 0.372827 -0.060319
2010-03-23 09:02:49 51°13.314 2°51.387 14.2742 0.061453 0.372827 -0.060319
2010-03-23 09:02:54 51°13.304 2°51.36 14.2552 0.061453 0.372842 -0.060319
2010-03-23 09:02:59 51°13.293 2°51.332 14.3073 0.061453 0.372842 -0.060319
2010-03-23 09:03:04 51°13.283 2°51.304 14.2317 0.061453 0.372842 -0.060319
2010-03-23 09:03:09 51°13.273 2°51.277 14.3014 0.061453 0.372842 -0.060319
2010-03-23 09:03:14 51°13.263 2°51.251 14.2649 0.061453 0.372857 -0.060319
2010-03-23 09:03:18 51°13.255 2°51.23 14.252 0.061453 0.372857 -0.060319
2010-03-23 09:03:24 51°13.244 2°51.199 14.2791 0.061453 0.372864 -0.060319
2010-03-23 09:03:29 51°13.235 2°51.174 14.2401 0.061453 0.372864 -0.060319
2010-03-23 09:03:34 51°13.225 2°51.15 14.2492 0.061453 0.372864 -0.060319
2010-03-23 09:03:39 51°13.216 2°51.126 14.2909 0.061453 0.372864 -0.060319
2010-03-23 09:03:44 51°13.208 2°51.103 14.2363 0.061453 0.372872 -0.060319
2010-03-23 09:03:49 51°13.199 2°51.08 14.3032 0.061453 0.372872 -0.060319
2010-03-23 09:03:54 51°13.19 2°51.057 14.2889 0.061453 0.37288 -0.060319
2010-03-23 09:03:58 51°13.184 2°51.039 14.3007 0.061453 0.37288 -0.060319
2010-03-23 09:04:04 51°13.174 2°51.013 14.2856 0.061453 0.372887 -0.060319
2010-03-23 09:04:09 51°13.165 2°50.991 14.2968 0.061453 0.372887 -0.060319
2010-03-23 09:04:14 51°13.157 2°50.969 14.2963 0.061453 0.372887 -0.060319
2010-03-23 09:04:18 51°13.151 2°50.952 14.2844 0.061453 0.372895 -0.060319
2010-03-23 09:04:24 51°13.141 2°50.926 14.32 0.061453 0.372902 -0.060319
2010-03-23 09:04:29 51°13.133 2°50.904 14.323 0.061453 0.372902 -0.060319
2010-03-23 09:04:34 51°13.125 2°50.882 14.3053 0.061453 0.372902 -0.060319
2010-03-23 09:04:38 51°13.118 2°50.865 14.2973 0.061453 0.372902 -0.060319
2010-03-23 09:04:44 51°13.109 2°50.839 14.3102 0.061453 0.37291 -0.060319
2010-03-23 09:04:49 51°13.101 2°50.817 14.2857 0.061453 0.372917 -0.060319
2010-03-23 09:04:54 51°13.092 2°50.796 14.3183 0.061453 0.372917 -0.060319
2010-03-23 09:04:59 51°13.084 2°50.774 14.3108 0.061453 0.372917 -0.060319
2010-03-23 09:05:04 51°13.076 2°50.752 14.2897 0.061453 0.372917 -0.060319
2010-03-23 09:05:09 51°13.068 2°50.73 14.2764 0.061453 0.372925 -0.060319
2010-03-23 09:05:14 51°13.06 2°50.708 14.3165 0.061453 0.372933 -0.060319
2010-03-23 09:05:18 51°13.053 2°50.691 14.2971 0.061453 0.372933 -0.060319
2010-03-23 09:05:24 51°13.044 2°50.665 14.3266 0.061453 0.372948 -0.060319
2010-03-23 09:05:29 51°13.035 2°50.643 14.2803 0.061453 0.372948 -0.060319
2010-03-23 09:05:34 51°13.027 2°50.621 14.3101 0.061453 0.37294 -0.060319
2010-03-23 09:05:39 51°13.019 2°50.599 14.2816 0.061453 0.372955 -0.060319
2010-03-23 09:05:44 51°13.011 2°50.577 14.3145 0.061453 0.372955 -0.060319
2010-03-23 09:05:49 51°13.003 2°50.556 14.2945 0.061453 0.372963 -0.060319
2010-03-23 09:05:54 51°12.994 2°50.534 14.3124 0.061453 0.372963 -0.060319
2010-03-23 09:05:58 51°12.988 2°50.516 14.2728 0.061453 0.372963 -0.060319
2010-03-23 09:06:04 51°12.978 2°50.49 14.325 0.061453 0.372963 -0.095143
2010-03-23 09:06:09 51°12.97 2°50.468 14.2726 0.061453 0.372971 -0.060319
2010-03-23 09:06:14 51°12.961 2°50.446 14.2966 0.061453 0.372971 -0.060319
2010-03-23 09:06:18 51°12.955 2°50.428 14.3134 0.061453 0.372978 -0.060319
2010-03-23 09:06:24 51°12.945 2°50.401 14.3026 0.061453 0.372978 -0.060319
2010-03-23 09:06:29 51°12.936 2°50.379 14.3072 0.061453 0.372978 -0.060319
2010-03-23 09:06:34 51°12.928 2°50.356 14.2495 0.061453 0.372986 -0.060319
2010-03-23 09:06:38 51°12.921 2°50.338 14.3332 0.061453 0.372986 -0.060319
2010-03-23 09:06:44 51°12.912 2°50.311 14.261 0.061453 0.373001 -0.060319
2010-03-23 09:06:49 51°12.903 2°50.289 14.3292 0.061453 0.372993 -0.060319
2010-03-23 09:06:54 51°12.895 2°50.266 14.2756 0.061453 0.373009 -0.060319
2010-03-23 09:06:58 51°12.888 2°50.248 14.2683 0.061453 0.373009 -0.060319
2010-03-23 09:07:04 51°12.878 2°50.22 14.3192 0.061453 0.373001 -0.060319
2010-03-23 09:07:09 51°12.869 2°50.198 14.2978 0.061453 0.373009 -0.060319
2010-03-23 09:07:14 51°12.861 2°50.175 14.3097 0.061453 0.373016 -0.060319
2010-03-23 09:07:19 51°12.852 2°50.153 14.295 0.061453 0.373016 -0.060319
2010-03-23 09:07:24 51°12.844 2°50.13 14.3083 0.061453 0.373016 -0.060319
2010-03-23 09:07:29 51°12.836 2°50.107 14.2942 0.061453 0.373016 -0.060319
2010-03-23 09:07:34 51°12.827 2°50.084 14.2999 0.061453 0.373024 -0.060319
2010-03-23 09:07:38 51°12.821 2°50.066 14.2886 0.061453 0.373031 -0.060319
2010-03-23 09:07:44 51°12.81 2°50.039 14.3084 0.061453 0.373031 -0.060319
2010-03-23 09:07:49 51°12.803 2°50.017 14.3127 0.061453 0.373039 -0.060319
2010-03-23 09:07:54 51°12.795 2°49.995 14.28 0.061453 0.373039 -0.060319
2010-03-23 09:07:58 51°12.787 2°49.977 14.3127 0.061453 0.373039 -0.060319
2010-03-23 09:08:04 51°12.776 2°49.949 14.3047 0.061453 0.373046 -0.060319
2010-03-23 09:08:09 51°12.768 2°49.926 14.3124 0.061453 0.373046 -0.060319
2010-03-23 09:08:14 51°12.759 2°49.903 14.2874 0.061453 0.373054 -0.060319
2010-03-23 09:08:18 51°12.753 2°49.884 14.3212 0.061453 0.373054 -0.060319
2010-03-23 09:08:24 51°12.742 2°49.857 14.2951 0.061453 0.373054 -0.060319
2010-03-23 09:08:29 51°12.734 2°49.835 14.3145 0.061453 0.373054 -0.060319
2010-03-23 09:08:34 51°12.726 2°49.812 14.2916 0.061453 0.373062 -0.060319
2010-03-23 09:08:38 51°12.719 2°49.794 14.306 0.061453 0.373069 -0.060319
2010-03-23 09:08:44 51°12.708 2°49.766 14.2954 0.061453 0.373069 -0.060319
2010-03-23 09:08:49 51°12.7 2°49.744 14.3224 0.061453 0.373077 -0.060319
2010-03-23 09:08:54 51°12.691 2°49.721 14.2859 0.061453 0.373077 -0.060319
2010-03-23 09:08:58 51°12.684 2°49.703 14.3046 0.061453 0.373077 -0.060319
2010-03-23 09:09:04 51°12.674 2°49.676 14.3277 0.061453 0.373077 -0.060319
2010-03-23 09:09:09 51°12.665 2°49.653 14.2951 0.061453 0.373084 -0.060319
2010-03-23 09:09:14 51°12.657 2°49.631 14.3295 0.061453 0.373084 -0.060319
2010-03-23 09:09:19 51°12.648 2°49.608 14.3085 0.061453 0.373092 -0.060319
2010-03-23 09:09:24 51°12.64 2°49.585 14.2957 0.061453 0.3731 -0.060319
2010-03-23 09:09:29 51°12.631 2°49.563 14.3035 0.061453 0.3731 -0.060319
2010-03-23 09:09:34 51°12.622 2°49.54 14.308 0.061453 0.3731 -0.060319
2010-03-23 09:09:38 51°12.616 2°49.521 14.311 0.06135 0.372461 -0.060319
2010-03-23 09:09:44 51°12.606 2°49.494 14.3301 0.061453 0.373115 -0.060319
2010-03-23 09:09:49 51°12.597 2°49.472 14.3132 0.06135 0.372469 -0.060319
2010-03-23 09:09:54 51°12.589 2°49.449 14.3354 0.06135 0.372476 -0.060319
2010-03-23 09:09:59 51°12.58 2°49.426 14.2993 0.06135 0.372476 -0.060319
2010-03-23 09:10:04 51°12.572 2°49.403 14.3204 0.06135 0.372476 -0.060319
2010-03-23 09:10:09 51°12.563 2°49.38 14.3023 0.06135 0.372484 -0.060319
2010-03-23 09:10:14 51°12.555 2°49.358 14.3185 0.06135 0.372484 -0.060319
2010-03-23 09:10:18 51°12.548 2°49.339 14.2732 0.06135 0.372491 -0.060319
2010-03-23 09:10:24 51°12.538 2°49.312 14.3488 0.06135 0.372491 -0.060319
2010-03-23 09:10:29 51°12.53 2°49.289 14.2898 0.06135 0.372491 -0.060319
2010-03-23 09:10:34 51°12.522 2°49.265 14.3239 0.06135 0.372491 -0.060319
2010-03-23 09:10:38 51°12.515 2°49.247 14.2935 0.06135 0.372499 -0.060319
2010-03-23 09:10:44 51°12.506 2°49.218 14.3412 0.06135 0.372506 -0.060319
2010-03-23 09:10:49 51°12.498 2°49.195 14.3074 0.06135 0.372506 -0.060319
2010-03-23 09:10:54 51°12.49 2°49.172 14.3454 0.06135 0.372514 -0.060319
2010-03-23 09:10:58 51°12.484 2°49.153 14.3108 0.06135 0.372514 -0.060319
2010-03-23 09:11:04 51°12.475 2°49.125 14.3403 0.06135 0.372514 -0.060319
2010-03-23 09:11:09 51°12.467 2°49.101 14.2927 0.06135 0.372522 -0.060319
2010-03-23 09:11:14 51°12.459 2°49.077 14.3486 0.06135 0.372529 -0.060319
2010-03-23 09:11:18 51°12.453 2°49.059 14.2768 0.06135 0.372537 -0.060319
2010-03-23 09:11:24 51°12.444 2°49.03 14.3159 0.06135 0.372537 -0.060319
2010-03-23 09:11:29 51°12.436 2°49.007 14.2598 0.06135 0.372537 -0.060319
2010-03-23 09:11:34 51°12.429 2°48.983 14.3326 0.06135 0.372544 -0.060319
2010-03-23 09:11:38 51°12.423 2°48.964 14.3272 0.06135 0.372544 -0.060319
2010-03-23 09:11:44 51°12.414 2°48.935 14.3133 0.06135 0.372544 -0.060319
2010-03-23 09:11:49 51°12.407 2°48.911 14.325 0.06135 0.37256 -0.060319
2010-03-23 09:11:54 51°12.4 2°48.886 14.3158 0.06135 0.372552 -0.060319
2010-03-23 09:11:58 51°12.395 2°48.867 14.3285 0.06135 0.372552 -0.060319
2010-03-23 09:12:04 51°12.387 2°48.837 14.317 0.06135 0.372567 -0.060319
2010-03-23 09:12:09 51°12.381 2°48.813 14.351 0.06135 0.372567 -0.060319
2010-03-23 09:12:14 51°12.374 2°48.788 14.3314 0.06135 0.372567 -0.060319
2010-03-23 09:12:18 51°12.369 2°48.768 14.3559 0.06135 0.372582 -0.060319
2010-03-23 09:12:24 51°12.362 2°48.739 14.3593 0.06135 0.372582 -0.060319
2010-03-23 09:12:29 51°12.356 2°48.714 14.3328 0.06135 0.372582 -0.060319
2010-03-23 09:12:34 51°12.349 2°48.689 14.3704 0.06135 0.37259 -0.060319
2010-03-23 09:12:38 51°12.344 2°48.669 14.2827 0.06135 0.37259 -0.060319
2010-03-23 09:12:44 51°12.337 2°48.64 14.3451 0.06135 0.372597 -0.060319
2010-03-23 09:12:49 51°12.33 2°48.615 14.3422 0.06135 0.372597 -0.060319
2010-03-23 09:12:54 51°12.324 2°48.59 14.2993 0.06135 0.372605 -0.060319
2010-03-23 09:12:58 51°12.319 2°48.57 14.3517 0.06135 0.372605 -0.060319
2010-03-23 09:13:04 51°12.312 2°48.541 14.3428 0.06135 0.372613 -0.060319
2010-03-23 09:13:09 51°12.305 2°48.516 14.3114 0.06135 0.372613 -0.060319
2010-03-23 09:13:14 51°12.299 2°48.491 14.3623 0.06135 0.37262 -0.060319
2010-03-23 09:13:18 51°12.294 2°48.471 14.3314 0.06135 0.37262 -0.060319
2010-03-23 09:13:24 51°12.286 2°48.442 14.3251 0.06135 0.372628 -0.060319
2010-03-23 09:13:29 51°12.28 2°48.417 14.3668 0.06135 0.372628 -0.060319
2010-03-23 09:13:34 51°12.274 2°48.392 14.3254 0.06135 0.372628 -0.060319
2010-03-23 09:13:39 51°12.268 2°48.368 14.373 0.06135 0.372635 -0.060319
2010-03-23 09:13:44 51°12.261 2°48.343 14.336 0.06135 0.372635 -0.060319
2010-03-23 09:13:49 51°12.255 2°48.318 14.3666 0.06135 0.372643 -0.060319
2010-03-23 09:13:54 51°12.249 2°48.293 14.3496 0.06135 0.372643 -0.060319
2010-03-23 09:13:58 51°12.243 2°48.274 14.3585 0.06135 0.372643 -0.060319
2010-03-23 09:14:04 51°12.235 2°48.245 14.3194 0.06135 0.372651 -0.060319
2010-03-23 09:14:09 51°12.228 2°48.22 14.3703 0.06135 0.372651 -0.095143
2010-03-23 09:14:14 51°12.222 2°48.195 14.3495 0.06135 0.372658 -0.095143
2010-03-23 09:14:18 51°12.217 2°48.176 14.3452 0.06135 0.372658 -0.095143
2010-03-23 09:14:24 51°12.21 2°48.145 14.3552 0.06135 0.372666 -0.095143
2010-03-23 09:14:29 51°12.204 2°48.12 14.3372 0.06135 0.372666 -0.095143
2010-03-23 09:14:34 51°12.198 2°48.096 14.3479 0.06135 0.372673 -0.060319
2010-03-23 09:14:38 51°12.193 2°48.076 14.3675 0.06135 0.372673 -0.060319
2010-03-23 09:14:44 51°12.185 2°48.046 14.3575 0.06135 0.372681 -0.060319
2010-03-23 09:14:49 51°12.18 2°48.021 14.3539 0.06135 0.372688 -0.060319
2010-03-23 09:14:54 51°12.173 2°47.996 14.334 0.06135 0.372688 -0.060319
2010-03-23 09:14:58 51°12.168 2°47.976 14.349 0.06135 0.372688 -0.060319
2010-03-23 09:15:04 51°12.161 2°47.947 14.3655 0.06135 0.372688 -0.060319
2010-03-23 09:15:09 51°12.154 2°47.922 14.3567 0.06135 0.372696 -0.060319
2010-03-23 09:15:14 51°12.148 2°47.897 14.3504 0.06135 0.372696 -0.060319
2010-03-23 09:15:18 51°12.143 2°47.877 14.3608 0.06135 0.372704 -0.060319
2010-03-23 09:15:24 51°12.136 2°47.847 14.3507 0.06135 0.372711 -0.060319
2010-03-23 09:15:29 51°12.13 2°47.822 14.3809 0.06135 0.372711 -0.060319
2010-03-23 09:15:34 51°12.123 2°47.798 14.3699 0.06135 0.372711 -0.060319
2010-03-23 09:15:38 51°12.118 2°47.778 14.3665 0.06135 0.372719 -0.060319
2010-03-23 09:15:44 51°12.111 2°47.748 14.355 0.06135 0.372719 -0.060319
2010-03-23 09:15:49 51°12.105 2°47.723 14.3789 0.06135 0.372719 -0.095143
2010-03-23 09:15:54 51°12.098 2°47.698 14.3532 0.06135 0.372726 -0.095143
2010-03-23 09:15:59 51°12.092 2°47.674 14.3621 0.06135 0.372726 -0.095143
2010-03-23 09:16:04 51°12.086 2°47.649 14.3737 0.06135 0.372734 -0.060319
2010-03-23 09:16:09 51°12.079 2°47.624 14.3641 0.06135 0.372742 -0.095143
2010-03-23 09:16:14 51°12.073 2°47.599 14.3448 0.06135 0.372742 -0.060319
2010-03-23 09:16:19 51°12.067 2°47.574 14.3457 0.06135 0.372749 -0.060319
2010-03-23 09:16:24 51°12.06 2°47.549 14.3661 0.06135 0.372749 -0.095143
2010-03-23 09:16:29 51°12.054 2°47.523 14.3758 0.06135 0.372749 -0.095143
2010-03-23 09:16:34 51°12.047 2°47.498 14.3806 0.06135 0.372757 -0.060319
2010-03-23 09:16:38 51°12.042 2°47.477 14.346 0.06135 0.372757 -0.060319
2010-03-23 09:16:44 51°12.034 2°47.447 14.3742 0.06135 0.372757 -0.060319
2010-03-23 09:16:49 51°12.028 2°47.421 14.3814 0.06135 0.372764 -0.060319
2010-03-23 09:16:54 51°12.021 2°47.396 14.3305 0.06135 0.372764 -0.060319
2010-03-23 09:16:58 51°12.016 2°47.376 14.3822 0.06135 0.372764 -0.060319
2010-03-23 09:17:04 51°12.009 2°47.345 14.3606 0.06135 0.372772 -0.095143
2010-03-23 09:17:09 51°12.002 2°47.319 14.3707 0.06135 0.37278 -0.095143
2010-03-23 09:17:14 51°11.996 2°47.294 14.3687 0.06135 0.37278 -0.060319
2010-03-23 09:17:18 51°11.991 2°47.273 14.3812 0.06135 0.372787 -0.095143
2010-03-23 09:17:23 51°11.984 2°47.248 14.3605 0.06135 0.372787 -0.060319
2010-03-23 09:17:29 51°11.976 2°47.217 14.3925 0.06135 0.372787 -0.060319
2010-03-23 09:17:33 51°11.972 2°47.196 14.3746 0.06135 0.372795 -0.060319
2010-03-23 09:17:38 51°11.965 2°47.171 14.3766 0.06135 0.372802 -0.095143
2010-03-23 09:17:43 51°11.959 2°47.145 14.3748 0.06135 0.372802 -0.060319
2010-03-23 09:17:49 51°11.951 2°47.115 14.3759 0.06135 0.37281 -0.060319
2010-03-23 09:17:54 51°11.944 2°47.089 14.3892 0.06135 0.37281 -0.060319
2010-03-23 09:17:58 51°11.939 2°47.069 14.3827 0.06135 0.37281 -0.060319
2010-03-23 09:18:04 51°11.931 2°47.038 14.3752 0.06135 0.372818 -0.060319
2010-03-23 09:18:09 51°11.925 2°47.012 14.37 0.06135 0.372818 -0.095143
2010-03-23 09:18:14 51°11.919 2°46.987 14.3787 0.06135 0.372825 -0.095143
2010-03-23 09:18:18 51°11.913 2°46.966 14.3774 0.061247 0.372186 -0.060319
2010-03-23 09:18:24 51°11.906 2°46.935 14.3883 0.061247 0.372186 -0.095143
2010-03-23 09:18:28 51°11.901 2°46.915 14.3762 0.061247 0.372186 -0.095143
2010-03-23 09:18:34 51°11.893 2°46.884 14.3763 0.061247 0.372193 -0.060319
2010-03-23 09:18:38 51°11.888 2°46.864 14.3881 0.061247 0.372193 -0.095143
2010-03-23 09:18:43 51°11.881 2°46.838 14.3747 0.061247 0.372201 -0.095143
2010-03-23 09:18:49 51°11.874 2°46.808 14.3887 0.061247 0.372209 -0.095143
2010-03-23 09:18:53 51°11.868 2°46.787 14.3807 0.061247 0.372209 -0.095143
2010-03-23 09:18:58 51°11.862 2°46.762 14.3585 0.061247 0.372209 -0.095143
2010-03-23 09:19:03 51°11.855 2°46.736 14.4047 0.061247 0.372216 -0.095143
2010-03-23 09:19:09 51°11.847 2°46.705 14.3561 0.061247 0.372224 -0.095143
2010-03-23 09:19:13 51°11.842 2°46.685 14.4012 0.061247 0.372224 -0.060319
2010-03-23 09:19:18 51°11.836 2°46.659 14.4007 0.061247 0.372231 -0.095143
2010-03-23 09:19:24 51°11.828 2°46.629 14.3819 0.061247 0.372231 -0.095143
2010-03-23 09:19:29 51°11.821 2°46.603 14.4069 0.061247 0.372231 -0.095143
2010-03-23 09:19:34 51°11.815 2°46.578 14.3842 0.061247 0.372239 -0.095143
2010-03-23 09:19:38 51°11.809 2°46.557 14.3868 0.061247 0.372239 -0.095143
2010-03-23 09:19:44 51°11.802 2°46.526 14.3856 0.061247 0.372247 -0.095143
2010-03-23 09:19:49 51°11.795 2°46.501 14.3979 0.061247 0.372247 -0.095143
2010-03-23 09:19:54 51°11.789 2°46.475 14.3835 0.061247 0.372254 -0.095143
2010-03-23 09:19:58 51°11.784 2°46.454 14.3956 0.061247 0.372254 -0.095143
2010-03-23 09:20:03 51°11.777 2°46.428 14.3883 0.061247 0.372262 -0.095143
2010-03-23 09:20:09 51°11.769 2°46.398 14.4011 0.061247 0.372262 -0.095143
2010-03-23 09:20:13 51°11.764 2°46.377 14.3865 0.061247 0.372269 -0.095143
2010-03-23 09:20:18 51°11.757 2°46.352 14.402 0.061247 0.372277 -0.095143
2010-03-23 09:20:23 51°11.751 2°46.326 14.3894 0.061247 0.372277 -0.095143
2010-03-23 09:20:28 51°11.744 2°46.301 14.3871 0.061247 0.372277 -0.095143
2010-03-23 09:20:34 51°11.737 2°46.27 14.4022 0.061247 0.372285 -0.095143
2010-03-23 09:20:38 51°11.731 2°46.25 14.3814 0.061247 0.372285 -0.095143
2010-03-23 09:20:43 51°11.725 2°46.224 14.3998 0.061247 0.372292 -0.095143
2010-03-23 09:20:49 51°11.717 2°46.194 14.3774 0.061247 0.3723 -0.095143
2010-03-23 09:20:54 51°11.711 2°46.168 14.3847 0.061247 0.3723 -0.095143
2010-03-23 09:20:58 51°11.706 2°46.148 14.4175 0.061247 0.3723 -0.095143
2010-03-23 09:21:04 51°11.698 2°46.117 14.4227 0.061247 0.372307 -0.095143
2010-03-23 09:21:09 51°11.692 2°46.092 14.4163 0.061247 0.372307 -0.060319
2010-03-23 09:21:14 51°11.685 2°46.066 14.386 0.061247 0.372315 -0.095143
2010-03-23 09:21:18 51°11.68 2°46.046 14.3778 0.061247 0.372322 -0.095143
2010-03-23 09:21:24 51°11.672 2°46.015 14.3761 0.061247 0.372322 -0.095143
2010-03-23 09:21:29 51°11.666 2°45.99 14.4285 0.061247 0.372322 -0.095143
2010-03-23 09:21:33 51°11.661 2°45.969 14.3893 0.061247 0.37233 -0.095143
2010-03-23 09:21:38 51°11.654 2°45.944 14.4261 0.061247 0.37233 -0.060319
2010-03-23 09:21:44 51°11.647 2°45.913 14.3818 0.061247 0.372338 -0.095143
2010-03-23 09:21:49 51°11.64 2°45.888 14.4267 0.061247 0.372345 -0.095143
2010-03-23 09:21:53 51°11.635 2°45.867 14.4146 0.061247 0.372345 -0.095143
2010-03-23 09:21:58 51°11.629 2°45.842 14.3896 0.061247 0.372345 -0.095143
2010-03-23 09:22:03 51°11.622 2°45.816 14.4284 0.061247 0.372353 -0.095143
2010-03-23 09:22:09 51°11.615 2°45.786 14.4151 0.061247 0.37236 -0.095143
2010-03-23 09:22:13 51°11.61 2°45.765 14.4392 0.061247 0.37236 -0.095143
2010-03-23 09:22:18 51°11.603 2°45.739 14.4364 0.061247 0.372368 -0.095143
2010-03-23 09:22:23 51°11.597 2°45.714 14.3756 0.061247 0.372376 -0.095143
2010-03-23 09:22:28 51°11.59 2°45.688 14.4205 0.061247 0.372376 -0.095143
2010-03-23 09:22:34 51°11.583 2°45.658 14.4051 0.061247 0.372376 -0.095143
2010-03-23 09:22:38 51°11.577 2°45.637 14.4023 0.061247 0.372383 -0.095143
2010-03-23 09:22:43 51°11.571 2°45.612 14.4296 0.061247 0.372383 -0.095143
2010-03-23 09:22:48 51°11.565 2°45.586 14.3785 0.061247 0.372391 -0.095143
2010-03-23 09:22:53 51°11.558 2°45.561 14.4441 0.061247 0.372391 -0.095143
2010-03-23 09:22:58 51°11.551 2°45.535 14.4146 0.061247 0.372391 -0.095143
2010-03-23 09:23:03 51°11.545 2°45.51 14.3882 0.061247 0.372398 -0.095143
2010-03-23 09:23:09 51°11.537 2°45.479 14.4024 0.061247 0.372398 -0.095143
2010-03-23 09:23:14 51°11.53 2°45.454 14.4232 0.061247 0.372406 -0.095143
2010-03-23 09:23:18 51°11.525 2°45.433 14.4023 0.061247 0.372414 -0.095143
2010-03-23 09:23:24 51°11.517 2°45.402 14.4452 0.061247 0.372414 -0.095143
2010-03-23 09:23:29 51°11.511 2°45.377 14.4022 0.061247 0.372414 -0.095143
2010-03-23 09:23:33 51°11.506 2°45.356 14.4475 0.061247 0.372421 -0.095143
2010-03-23 09:23:38 51°11.499 2°45.33 14.3773 0.061247 0.372429 -0.095143
2010-03-23 09:23:44 51°11.491 2°45.3 14.41 0.061247 0.372429 -0.095143
2010-03-23 09:23:48 51°11.486 2°45.279 14.4267 0.061247 0.372436 -0.095143
2010-03-23 09:23:53 51°11.48 2°45.253 14.3996 0.061247 0.372436 -0.095143
2010-03-23 09:23:58 51°11.474 2°45.228 14.4211 0.061247 0.372436 -0.095143
2010-03-23 09:24:04 51°11.466 2°45.197 14.3868 0.061247 0.372444 -0.095143
2010-03-23 09:24:09 51°11.459 2°45.171 14.4144 0.061247 0.372452 -0.095143
2010-03-23 09:24:13 51°11.454 2°45.151 14.4315 0.061247 0.372452 -0.095143
2010-03-23 09:24:18 51°11.448 2°45.125 14.4147 0.061247 0.372459 -0.095143
2010-03-23 09:24:23 51°11.441 2°45.1 14.4114 0.061247 0.372467 -0.095143
2010-03-23 09:24:29 51°11.433 2°45.069 14.4334 0.061247 0.372467 -0.095143
2010-03-23 09:24:33 51°11.428 2°45.048 14.425 0.061247 0.372467 -0.095143
2010-03-23 09:24:38 51°11.422 2°45.023 14.4059 0.061247 0.372474 -0.095143
2010-03-23 09:24:44 51°11.414 2°44.992 14.451 0.061247 0.372474 -0.095143
2010-03-23 09:24:49 51°11.407 2°44.966 14.4162 0.061247 0.372482 -0.095143
2010-03-23 09:24:54 51°11.401 2°44.94 14.4233 0.061247 0.372489 -0.095143
2010-03-23 09:24:58 51°11.396 2°44.92 14.4152 0.061247 0.372489 -0.095143
2010-03-23 09:25:03 51°11.39 2°44.894 14.4585 0.061247 0.372489 -0.095143
2010-03-23 09:25:08 51°11.383 2°44.868 14.396 0.061247 0.372497 -0.095143
2010-03-23 09:25:13 51°11.377 2°44.843 14.4511 0.061247 0.372497 -0.095143
2010-03-23 09:25:18 51°11.371 2°44.817 14.4252 0.061247 0.372505 -0.095143
2010-03-23 09:25:24 51°11.363 2°44.786 14.4427 0.061247 0.372512 -0.095143
2010-03-23 09:25:28 51°11.358 2°44.766 14.4611 0.061247 0.372512 -0.095143
2010-03-23 09:25:33 51°11.351 2°44.74 14.4223 0.061247 0.372512 -0.095143
2010-03-23 09:25:38 51°11.345 2°44.714 14.4613 0.061247 0.37252 -0.095143
2010-03-23 09:25:44 51°11.337 2°44.684 14.3959 0.061247 0.372527 -0.095143
2010-03-23 09:25:48 51°11.332 2°44.663 14.4688 0.061247 0.372527 -0.095143
2010-03-23 09:25:53 51°11.326 2°44.637 14.4302 0.061247 0.372535 -0.095143
2010-03-23 09:25:58 51°11.319 2°44.612 14.4369 0.061247 0.372535 -0.095143
2010-03-23 09:26:04 51°11.312 2°44.581 14.4323 0.061247 0.372535 -0.095143
2010-03-23 09:26:09 51°11.305 2°44.556 14.4519 0.061247 0.372543 -0.095143
2010-03-23 09:26:13 51°11.3 2°44.535 14.4201 0.061247 0.37255 -0.095143
2010-03-23 09:26:18 51°11.294 2°44.51 14.4427 0.061247 0.37255 -0.095143
2010-03-23 09:26:24 51°11.286 2°44.479 14.4362 0.061247 0.372558 -0.095143
2010-03-23 09:26:28 51°11.281 2°44.458 14.478 0.061247 0.372558 -0.095143
2010-03-23 09:26:33 51°11.275 2°44.432 14.4305 0.061247 0.372565 -0.095143
2010-03-23 09:26:38 51°11.268 2°44.407 14.447 0.061144 0.371918 -0.095143
2010-03-23 09:26:44 51°11.261 2°44.376 14.4555 0.061144 0.371926 -0.095143
2010-03-23 09:26:49 51°11.254 2°44.351 14.4518 0.061144 0.371926 -0.095143
2010-03-23 09:26:53 51°11.249 2°44.33 14.4126 0.061144 0.371933 -0.095143
2010-03-23 09:26:58 51°11.242 2°44.305 14.4551 0.061144 0.371933 -0.095143
2010-03-23 09:27:03 51°11.236 2°44.279 14.4514 0.061144 0.371941 -0.095143
2010-03-23 09:27:09 51°11.228 2°44.248 14.4615 0.061144 0.371941 -0.095143
2010-03-23 09:27:13 51°11.223 2°44.228 14.4244 0.061144 0.371941 -0.095143
2010-03-23 09:27:18 51°11.217 2°44.202 14.4594 0.061144 0.371948 -0.095143
2010-03-23 09:27:23 51°11.211 2°44.177 14.4599 0.061144 0.371956 -0.095143
2010-03-23 09:27:28 51°11.204 2°44.151 14.4633 0.061144 0.371956 -0.095143
2010-03-23 09:27:34 51°11.197 2°44.12 14.4143 0.061144 0.371956 -0.095143
2010-03-23 09:27:38 51°11.191 2°44.1 14.4459 0.061144 0.371964 -0.095143
2010-03-23 09:27:44 51°11.184 2°44.069 14.4553 0.061144 0.371964 -0.095143
2010-03-23 09:27:48 51°11.179 2°44.049 14.4377 0.061144 0.371971 -0.095143
2010-03-23 09:27:53 51°11.172 2°44.023 14.4451 0.061144 0.371979 -0.095143
2010-03-23 09:27:58 51°11.166 2°43.997 14.4491 0.061144 0.371979 -0.095143
2010-03-23 09:28:03 51°11.16 2°43.971 14.4467 0.061144 0.371986 -0.095143
2010-03-23 09:28:09 51°11.152 2°43.941 14.4314 0.061144 0.371986 -0.095143
2010-03-23 09:28:13 51°11.147 2°43.92 14.4289 0.061144 0.371986 -0.095143
2010-03-23 09:28:18 51°11.141 2°43.894 14.467 0.061144 0.371994 -0.095143
2010-03-23 09:28:24 51°11.133 2°43.863 14.4326 0.061144 0.372001 -0.095143
2010-03-23 09:28:29 51°11.127 2°43.838 14.4561 0.061144 0.372001 -0.095143
2010-03-23 09:28:33 51°11.122 2°43.817 14.4652 0.061144 0.372009 -0.095143
2010-03-23 09:28:38 51°11.115 2°43.791 14.4436 0.061144 0.372009 -0.095143
2010-03-23 09:28:44 51°11.108 2°43.761 14.4368 0.061144 0.372009 -0.095143
2010-03-23 09:28:48 51°11.103 2°43.74 14.4278 0.061144 0.372024 -0.095143
2010-03-23 09:28:53 51°11.096 2°43.714 14.466 0.061144 0.372017 -0.095143
2010-03-23 09:28:58 51°11.09 2°43.688 14.465 0.061144 0.372017 -0.095143
2010-03-23 09:29:03 51°11.083 2°43.663 14.4408 0.061144 0.372024 -0.095143
2010-03-23 09:29:08 51°11.077 2°43.637 14.4512 0.061144 0.372032 -0.095143
2010-03-23 09:29:13 51°11.071 2°43.611 14.4553 0.061144 0.372039 -0.095143
2010-03-23 09:29:18 51°11.065 2°43.585 14.4502 0.061144 0.372039 -0.095143
2010-03-23 09:29:24 51°11.057 2°43.554 14.4891 0.061144 0.372047 -0.095143
2010-03-23 09:29:28 51°11.052 2°43.533 14.376 0.061144 0.372047 -0.095143
2010-03-23 09:29:33 51°11.046 2°43.508 14.4773 0.061144 0.372047 -0.095143
2010-03-23 09:29:38 51°11.04 2°43.482 14.4247 0.061144 0.372055 -0.095143
2010-03-23 09:29:43 51°11.033 2°43.456 14.4764 0.061144 0.372055 -0.095143
2010-03-23 09:29:49 51°11.026 2°43.425 14.4449 0.061144 0.372062 -0.095143
2010-03-23 09:29:53 51°11.021 2°43.404 14.4639 0.061144 0.37207 -0.095143
2010-03-23 09:29:58 51°11.014 2°43.378 14.4671 0.061144 0.37207 -0.095143
2010-03-23 09:30:04 51°11.007 2°43.347 14.4683 0.061144 0.37207 -0.095143
2010-03-23 09:30:08 51°11.002 2°43.326 14.4623 0.061144 0.372077 -0.095143
2010-03-23 09:30:13 51°10.996 2°43.301 14.4877 0.061144 0.372077 -0.095143
2010-03-23 09:30:18 51°10.989 2°43.275 14.459 0.061144 0.372085 -0.095143
2010-03-23 09:30:24 51°10.982 2°43.244 14.479 0.061144 0.372093 -0.095143
2010-03-23 09:30:28 51°10.977 2°43.223 14.4429 0.061144 0.372093 -0.095143
2010-03-23 09:30:33 51°10.97 2°43.197 14.4759 0.061144 0.372093 -0.095143
2010-03-23 09:30:38 51°10.964 2°43.171 14.45 0.061144 0.3721 -0.095143
2010-03-23 09:30:43 51°10.958 2°43.145 14.4692 0.061144 0.372108 -0.095143
2010-03-23 09:30:48 51°10.952 2°43.119 14.4484 0.061144 0.372108 -0.095143
2010-03-23 09:30:53 51°10.945 2°43.093 14.4863 0.061144 0.372115 -0.095143
2010-03-23 09:30:58 51°10.939 2°43.068 14.4681 0.061144 0.372115 -0.095143
2010-03-23 09:31:03 51°10.933 2°43.042 14.4647 0.061144 0.372115 -0.095143
2010-03-23 09:31:09 51°10.925 2°43.011 14.5 0.061144 0.372123 -0.095143
2010-03-23 09:31:13 51°10.92 2°42.99 14.4889 0.061144 0.372131 -0.095143
2010-03-23 09:31:18 51°10.914 2°42.964 14.4713 0.061144 0.372131 -0.095143
2010-03-23 09:31:23 51°10.908 2°42.938 14.465 0.061144 0.372138 -0.095143
2010-03-23 09:31:29 51°10.9 2°42.906 14.4523 0.061144 0.372138 -0.095143
2010-03-23 09:31:34 51°10.893 2°42.88 14.4861 0.061144 0.372138 -0.095143
2010-03-23 09:31:38 51°10.888 2°42.859 14.4519 0.061144 0.372146 -0.095143
2010-03-23 09:31:44 51°10.881 2°42.827 14.4819 0.061144 0.372153 -0.095143
2010-03-23 09:31:48 51°10.875 2°42.805 14.4577 0.061144 0.372153 -0.095143
2010-03-23 09:31:54 51°10.868 2°42.772 14.4892 0.061144 0.372161 -0.095143
2010-03-23 09:31:58 51°10.863 2°42.751 14.4664 0.061144 0.372161 -0.095143
2010-03-23 09:32:03 51°10.857 2°42.724 14.4908 0.061144 0.372161 -0.095143
2010-03-23 09:32:08 51°10.85 2°42.696 14.4992 0.061144 0.372169 -0.095143
2010-03-23 09:32:13 51°10.844 2°42.669 14.5084 0.061144 0.372176 -0.095143
2010-03-23 09:32:18 51°10.837 2°42.642 14.4747 0.061144 0.372176 -0.095143
2010-03-23 09:32:23 51°10.83 2°42.615 14.5076 0.061144 0.372184 -0.095143
2010-03-23 09:32:28 51°10.824 2°42.588 14.4716 0.061144 0.372184 -0.095143
2010-03-23 09:32:33 51°10.817 2°42.561 14.4533 0.061144 0.372191 -0.095143
2010-03-23 09:32:38 51°10.811 2°42.534 14.4917 0.061144 0.372191 -0.095143
2010-03-23 09:32:43 51°10.804 2°42.506 14.4722 0.061144 0.372199 -0.095143
2010-03-23 09:32:48 51°10.797 2°42.479 14.4917 0.061144 0.372199 -0.095143
2010-03-23 09:32:53 51°10.791 2°42.452 14.49 0.061144 0.372207 -0.095143
2010-03-23 09:32:58 51°10.785 2°42.425 14.4834 0.061144 0.372207 -0.095143
2010-03-23 09:33:03 51°10.778 2°42.398 14.4695 0.061144 0.372214 -0.095143
2010-03-23 09:33:09 51°10.77 2°42.365 14.4865 0.061144 0.372214 -0.095143
2010-03-23 09:33:13 51°10.765 2°42.343 14.4738 0.061144 0.372222 -0.095143
2010-03-23 09:33:18 51°10.758 2°42.316 14.4958 0.061144 0.372229 -0.095143
2010-03-23 09:33:22 51°10.753 2°42.294 14.4603 0.061144 0.372229 -0.095143
2010-03-23 09:33:29 51°10.744 2°42.256 14.5042 0.061144 0.372229 -0.095143
2010-03-23 09:33:33 51°10.739 2°42.234 14.4941 0.061144 0.372237 -0.129967
2010-03-23 09:33:38 51°10.733 2°42.207 14.5 0.061144 0.372245 -0.095143
2010-03-23 09:33:43 51°10.726 2°42.18 14.4997 0.061144 0.372252 -0.095143
2010-03-23 09:33:48 51°10.719 2°42.153 14.478 0.061144 0.372252 -0.095143
2010-03-23 09:33:53 51°10.713 2°42.126 14.4353 0.061144 0.372252 -0.095143
2010-03-23 09:33:58 51°10.706 2°42.099 14.5219 0.061144 0.372252 -0.095143
2010-03-23 09:34:04 51°10.698 2°42.066 14.4683 0.061144 0.37226 -0.095143
2010-03-23 09:34:08 51°10.693 2°42.044 14.4543 0.061144 0.372267 -0.095143
2010-03-23 09:34:14 51°10.686 2°42.012 14.4974 0.061144 0.372267 -0.129967
2010-03-23 09:34:18 51°10.68 2°41.99 14.4883 0.061144 0.372275 -0.129967
2010-03-23 09:34:23 51°10.674 2°41.963 14.5161 0.061144 0.372283 -0.129967
2010-03-23 09:34:28 51°10.667 2°41.935 14.4916 0.061144 0.372283 -0.129967
2010-03-23 09:34:33 51°10.661 2°41.907 14.5202 0.061144 0.372283 -0.129967
2010-03-23 09:34:38 51°10.655 2°41.879 14.4649 0.061144 0.37229 -0.129967
2010-03-23 09:34:44 51°10.647 2°41.846 14.5133 0.061144 0.37229 -0.129967
2010-03-23 09:34:49 51°10.64 2°41.818 14.4738 0.061144 0.372298 -0.129967
2010-03-23 09:34:53 51°10.635 2°41.796 14.5122 0.061041 0.371657 -0.129967
2010-03-23 09:34:58 51°10.628 2°41.768 14.4928 0.061041 0.371657 -0.129967
2010-03-23 09:35:04 51°10.619 2°41.735 14.5233 0.061041 0.371657 -0.095143
2010-03-23 09:35:08 51°10.614 2°41.713 14.458 0.061041 0.371672 -0.129967
2010-03-23 09:35:13 51°10.606 2°41.685 14.4521 0.061041 0.371672 -0.095143
2010-03-23 09:35:18 51°10.599 2°41.658 14.5268 0.061041 0.37168 -0.095143
2010-03-23 09:35:23 51°10.591 2°41.63 14.4752 0.061041 0.37168 -0.095143
2010-03-23 09:35:29 51°10.583 2°41.597 14.4782 0.061041 0.37168 -0.095143
2010-03-23 09:35:33 51°10.577 2°41.575 14.496 0.061041 0.371688 -0.129967
2010-03-23 09:35:38 51°10.569 2°41.547 14.4817 0.061041 0.371695 -0.095143
2010-03-23 09:35:43 51°10.562 2°41.519 14.5143 0.061041 0.371695 -0.129967
2010-03-23 09:35:49 51°10.554 2°41.486 14.4718 0.061041 0.371703 -0.095143
2010-03-23 09:35:53 51°10.548 2°41.464 14.5021 0.061041 0.371703 -0.095143
2010-03-23 09:35:58 51°10.541 2°41.436 14.4544 0.061041 0.371703 -0.095143
2010-03-23 09:36:03 51°10.533 2°41.408 14.4857 0.061041 0.37171 -0.095143
2010-03-23 09:36:08 51°10.526 2°41.38 14.5122 0.061041 0.371718 -0.095143
2010-03-23 09:36:14 51°10.518 2°41.347 14.494 0.061041 0.371726 -0.129967
2010-03-23 09:36:18 51°10.512 2°41.324 14.4869 0.061041 0.371726 -0.095143
2010-03-23 09:36:24 51°10.503 2°41.291 14.4811 0.061041 0.371733 -0.129967
2010-03-23 09:36:28 51°10.497 2°41.269 14.4821 0.061041 0.371733 -0.129967
2010-03-23 09:36:34 51°10.489 2°41.235 14.5097 0.061041 0.371733 -0.095143
2010-03-23 09:36:38 51°10.483 2°41.213 14.5072 0.061041 0.371741 -0.095143
2010-03-23 09:36:43 51°10.475 2°41.186 14.5105 0.061041 0.371748 -0.129967
2010-03-23 09:36:48 51°10.468 2°41.158 14.4919 0.061041 0.371748 -0.129967
2010-03-23 09:36:53 51°10.461 2°41.13 14.4887 0.061041 0.371756 -0.095143
2010-03-23 09:36:58 51°10.454 2°41.102 14.5243 0.061041 0.371756 -0.095143
2010-03-23 09:37:04 51°10.445 2°41.069 14.4913 0.061041 0.371764 -0.095143
2010-03-23 09:37:09 51°10.438 2°41.041 14.5001 0.061041 0.371764 -0.129967
2010-03-23 09:37:13 51°10.432 2°41.019 14.5391 0.061041 0.371771 -0.129967
2010-03-23 09:37:18 51°10.425 2°40.992 14.5094 0.061041 0.371779 -0.095143
2010-03-23 09:37:24 51°10.416 2°40.959 14.5111 0.061041 0.371779 -0.129967
2010-03-23 09:37:28 51°10.41 2°40.937 14.4984 0.061041 0.371779 -0.129967
2010-03-23 09:37:33 51°10.403 2°40.909 14.5046 0.061041 0.371786 -0.129967
2010-03-23 09:37:38 51°10.396 2°40.881 14.5137 0.061041 0.371786 -0.095143
2010-03-23 09:37:43 51°10.388 2°40.854 14.5114 0.061041 0.371794 -0.129967
2010-03-23 09:37:48 51°10.381 2°40.826 14.5085 0.061041 0.371794 -0.129967
2010-03-23 09:37:53 51°10.374 2°40.799 14.4733 0.061041 0.371802 -0.129967
2010-03-23 09:37:58 51°10.367 2°40.771 14.5226 0.061041 0.371802 -0.129967
2010-03-23 09:38:02 51°10.361 2°40.749 14.491 0.061041 0.371809 -0.129967
2010-03-23 09:38:09 51°10.351 2°40.71 14.5291 0.061041 0.371809 -0.129967
2010-03-23 09:38:13 51°10.345 2°40.688 14.5052 0.061041 0.371817 -0.129967
2010-03-23 09:38:18 51°10.338 2°40.661 14.5066 0.061041 0.371817 -0.129967
2010-03-23 09:38:23 51°10.331 2°40.633 14.5182 0.061041 0.371832 -0.129967
2010-03-23 09:38:28 51°10.324 2°40.605 14.5325 0.061041 0.371832 -0.129967
2010-03-23 09:38:33 51°10.317 2°40.577 14.5314 0.061041 0.371832 -0.129967
2010-03-23 09:38:38 51°10.31 2°40.55 14.5096 0.061041 0.37184 -0.129967
2010-03-23 09:38:43 51°10.303 2°40.522 14.5284 0.061041 0.37184 -0.129967
2010-03-23 09:38:48 51°10.295 2°40.494 14.5043 0.061041 0.371847 -0.095143
2010-03-23 09:38:53 51°10.288 2°40.467 14.5514 0.061041 0.371855 -0.129967
2010-03-23 09:38:58 51°10.281 2°40.439 14.4896 0.061041 0.371855 -0.129967
2010-03-23 09:39:03 51°10.274 2°40.411 14.5287 0.061041 0.371855 -0.129967
2010-03-23 09:39:08 51°10.267 2°40.383 14.5362 0.061041 0.371862 -0.129967
2010-03-23 09:39:13 51°10.26 2°40.356 14.5347 0.061041 0.37187 -0.129967
2010-03-23 09:39:18 51°10.253 2°40.328 14.5258 0.061041 0.371862 -0.129967
2010-03-23 09:39:23 51°10.246 2°40.301 14.5358 0.061041 0.371878 -0.095143
2010-03-23 09:39:29 51°10.237 2°40.267 14.4893 0.061041 0.371878 -0.095143
2010-03-23 09:39:33 51°10.232 2°40.245 14.5088 0.061041 0.371878 -0.129967
2010-03-23 09:39:38 51°10.225 2°40.217 14.5319 0.061041 0.371885 -0.129967
2010-03-23 09:39:44 51°10.216 2°40.184 14.5187 0.061041 0.371885 -0.129967
2010-03-23 09:39:49 51°10.21 2°40.156 14.5483 0.061041 0.371893 -0.129967
2010-03-23 09:39:53 51°10.204 2°40.134 14.5356 0.061041 0.3719 -0.095143
2010-03-23 09:39:58 51°10.197 2°40.106 14.5097 0.061041 0.3719 -0.095143
2010-03-23 09:40:03 51°10.19 2°40.078 14.5685 0.061041 0.3719 -0.129967
2010-03-23 09:40:08 51°10.183 2°40.05 14.5157 0.061041 0.371908 -0.129967
2010-03-23 09:40:13 51°10.176 2°40.023 14.5426 0.061041 0.371916 -0.129967
2010-03-23 09:40:18 51°10.169 2°39.995 14.55 0.061041 0.371916 -0.129967
2010-03-23 09:40:24 51°10.161 2°39.961 14.5125 0.061041 0.371923 -0.129967
2010-03-23 09:40:29 51°10.153 2°39.934 14.5203 0.061041 0.371923 -0.129967
2010-03-23 09:40:34 51°10.146 2°39.906 14.538 0.061041 0.371923 -0.129967
2010-03-23 09:40:38 51°10.141 2°39.884 14.5181 0.061041 0.371931 -0.129967
2010-03-23 09:40:44 51°10.132 2°39.85 14.5675 0.061041 0.371938 -0.129967
2010-03-23 09:40:48 51°10.127 2°39.828 14.5265 0.061041 0.371946 -0.129967
2010-03-23 09:40:53 51°10.12 2°39.8 14.5133 0.061041 0.371946 -0.129967
2010-03-23 09:40:58 51°10.113 2°39.772 14.552 0.061041 0.371946 -0.129967
2010-03-23 09:41:03 51°10.106 2°39.744 14.5156 0.061041 0.371954 -0.129967
2010-03-23 09:41:08 51°10.099 2°39.717 14.5129 0.061041 0.371954 -0.129967
2010-03-23 09:41:14 51°10.09 2°39.683 14.5508 0.061041 0.371961 -0.129967
2010-03-23 09:41:18 51°10.085 2°39.661 14.5555 0.061041 0.371969 -0.129967
2010-03-23 09:41:23 51°10.078 2°39.633 14.5226 0.061041 0.371976 -0.129967
2010-03-23 09:41:28 51°10.07 2°39.605 14.551 0.061041 0.371976 -0.129967
2010-03-23 09:41:33 51°10.063 2°39.577 14.5226 0.061041 0.371976 -0.129967
2010-03-23 09:41:38 51°10.056 2°39.549 14.5242 0.061041 0.371984 -0.129967
2010-03-23 09:41:43 51°10.05 2°39.522 14.5438 0.061041 0.371992 -0.129967
2010-03-23 09:41:49 51°10.041 2°39.488 14.522 0.061041 0.371992 -0.129967
2010-03-23 09:41:53 51°10.035 2°39.466 14.5452 0.061041 0.371999 -0.095143
2010-03-23 09:41:58 51°10.028 2°39.438 14.5265 0.061041 0.371999 -0.095143
2010-03-23 09:42:04 51°10.02 2°39.404 14.5218 0.061041 0.372007 -0.129967
2010-03-23 09:42:08 51°10.014 2°39.382 14.5512 0.061041 0.372007 -0.129967
2010-03-23 09:42:14 51°10.006 2°39.348 14.5305 0.061041 0.372014 -0.129967
2010-03-23 09:42:18 51°10 2°39.326 14.5285 0.061041 0.372014 -0.129967
2010-03-23 09:42:23 51°9.993 2°39.298 14.5306 0.061041 0.372022 -0.129967
2010-03-23 09:42:29 51°9.985 2°39.264 14.5502 0.061041 0.372022 -0.129967
2010-03-23 09:42:33 51°9.979 2°39.242 14.5567 0.061041 0.37203 -0.129967
2010-03-23 09:42:38 51°9.972 2°39.213 14.5472 0.061041 0.372037 -0.129967
2010-03-23 09:42:43 51°9.966 2°39.185 14.5514 0.061041 0.372037 -0.129967
2010-03-23 09:42:48 51°9.959 2°39.157 14.5435 0.061041 0.372053 -0.129967
2010-03-23 09:42:54 51°9.95 2°39.123 14.563 0.061041 0.372053 -0.129967
2010-03-23 09:42:58 51°9.945 2°39.101 14.5633 0.061041 0.372053 -0.129967
2010-03-23 09:43:03 51°9.937 2°39.073 14.5474 0.061041 0.37206 -0.129967
2010-03-23 09:43:08 51°9.93 2°39.045 14.5506 0.061041 0.37206 -0.129967
2010-03-23 09:43:13 51°9.924 2°39.017 14.5393 0.061041 0.372068 -0.129967
2010-03-23 09:43:18 51°9.916 2°38.989 14.5429 0.061041 0.372075 -0.129967
2010-03-23 09:43:24 51°9.908 2°38.955 14.5627 0.061041 0.372083 -0.129967
2010-03-23 09:43:28 51°9.902 2°38.932 14.5401 0.061041 0.372083 -0.129967
2010-03-23 09:43:33 51°9.895 2°38.904 14.5588 0.061041 0.372083 -0.095143
2010-03-23 09:43:38 51°9.888 2°38.876 14.5073 0.061041 0.372091 -0.129967
2010-03-23 09:43:44 51°9.88 2°38.842 14.5717 0.061041 0.372098 -0.129967
2010-03-23 09:43:48 51°9.874 2°38.82 14.5314 0.061041 0.372106 -0.129967
2010-03-23 09:43:53 51°9.867 2°38.792 14.5359 0.061041 0.372113 -0.129967
2010-03-23 09:43:58 51°9.86 2°38.763 14.5366 0.061041 0.372113 -0.129967
2010-03-23 09:44:04 51°9.852 2°38.73 14.5615 0.060938 0.371465 -0.129967
2010-03-23 09:44:09 51°9.845 2°38.701 14.5712 0.060938 0.371472 -0.129967
2010-03-23 09:44:13 51°9.839 2°38.679 14.5649 0.060938 0.371472 -0.129967
2010-03-23 09:44:18 51°9.832 2°38.651 14.5752 0.060938 0.37148 -0.129967
2010-03-23 09:44:23 51°9.825 2°38.622 14.585 0.060938 0.37148 -0.129967
2010-03-23 09:44:28 51°9.819 2°38.594 14.5482 0.060938 0.37148 -0.129967
2010-03-23 09:44:33 51°9.812 2°38.566 14.5775 0.060938 0.371487 -0.129967
2010-03-23 09:44:38 51°9.805 2°38.537 14.5488 0.060938 0.371495 -0.129967
2010-03-23 09:44:44 51°9.796 2°38.504 14.5879 0.060938 0.371503 -0.129967
2010-03-23 09:44:49 51°9.789 2°38.475 14.5101 0.060938 0.371503 -0.129967
2010-03-23 09:44:53 51°9.783 2°38.453 14.5754 0.060938 0.37151 -0.129967
2010-03-23 09:44:58 51°9.777 2°38.424 14.5508 0.060938 0.37151 -0.129967
2010-03-23 09:45:03 51°9.77 2°38.396 14.5601 0.060938 0.371518 -0.129967
2010-03-23 09:45:09 51°9.761 2°38.362 14.5629 0.060938 0.371518 -0.129967
2010-03-23 09:45:13 51°9.756 2°38.34 14.5814 0.060938 0.371518 -0.129967
2010-03-23 09:45:18 51°9.749 2°38.311 14.5768 0.060938 0.371525 -0.129967
2010-03-23 09:45:24 51°9.741 2°38.277 14.5497 0.060938 0.371533 -0.129967
2010-03-23 09:45:28 51°9.735 2°38.254 14.5694 0.060938 0.371533 -0.129967
2010-03-23 09:45:33 51°9.729 2°38.226 14.5617 0.060938 0.371541 -0.129967
2010-03-23 09:45:38 51°9.722 2°38.198 14.5731 0.060938 0.371541 -0.129967
2010-03-23 09:45:44 51°9.714 2°38.163 14.5702 0.060938 0.371541 -0.129967
2010-03-23 09:45:48 51°9.708 2°38.141 14.5931 0.060938 0.371548 -0.129967
2010-03-23 09:45:53 51°9.701 2°38.112 14.5708 0.060938 0.371556 -0.129967
2010-03-23 09:45:58 51°9.694 2°38.084 14.5367 0.060938 0.371556 -0.129967
2010-03-23 09:46:03 51°9.687 2°38.056 14.5797 0.060938 0.371563 -0.129967
2010-03-23 09:46:09 51°9.679 2°38.022 14.5319 0.060938 0.371563 -0.129967
2010-03-23 09:46:13 51°9.673 2°37.999 14.5885 0.060938 0.371571 -0.129967
2010-03-23 09:46:18 51°9.666 2°37.971 14.578 0.060938 0.371571 -0.129967
2010-03-23 09:46:24 51°9.658 2°37.937 14.5889 0.060938 0.371579 -0.129967
2010-03-23 09:46:28 51°9.652 2°37.914 14.5597 0.060938 0.371579 -0.129967
2010-03-23 09:46:33 51°9.645 2°37.886 14.5507 0.060938 0.371586 -0.129967
2010-03-23 09:46:38 51°9.638 2°37.857 14.5886 0.060938 0.371586 -0.129967
2010-03-23 09:46:43 51°9.631 2°37.829 14.5941 0.060938 0.371594 -0.129967
2010-03-23 09:46:48 51°9.624 2°37.8 14.5608 0.060938 0.371601 -0.129967
2010-03-23 09:46:53 51°9.617 2°37.772 14.5992 0.060938 0.371601 -0.129967
2010-03-23 09:46:58 51°9.611 2°37.743 14.5761 0.060938 0.371601 -0.129967
2010-03-23 09:47:04 51°9.602 2°37.709 14.593 0.060938 0.371609 -0.129967
2010-03-23 09:47:08 51°9.597 2°37.686 14.5845 0.060938 0.371617 -0.129967
2010-03-23 09:47:14 51°9.588 2°37.652 14.5966 0.060938 0.371624 -0.129967
2010-03-23 09:47:18 51°9.582 2°37.63 14.5398 0.060938 0.371632 -0.129967
2010-03-23 09:47:23 51°9.575 2°37.601 14.5644 0.060938 0.371632 -0.129967
2010-03-23 09:47:28 51°9.568 2°37.573 14.5978 0.060938 0.371632 -0.129967
2010-03-23 09:47:33 51°9.561 2°37.544 14.5743 0.060938 0.371639 -0.129967
2010-03-23 09:47:38 51°9.554 2°37.516 14.5894 0.060938 0.371639 -0.129967
2010-03-23 09:47:44 51°9.546 2°37.481 14.5936 0.060938 0.371647 -0.129967
2010-03-23 09:47:48 51°9.541 2°37.458 14.6164 0.060938 0.371655 -0.129967
2010-03-23 09:47:53 51°9.534 2°37.43 14.5797 0.060938 0.371655 -0.129967
2010-03-23 09:47:58 51°9.527 2°37.401 14.5906 0.060938 0.371655 -0.129967
2010-03-23 09:48:04 51°9.518 2°37.367 14.582 0.060938 0.371662 -0.129967
2010-03-23 09:48:08 51°9.513 2°37.344 14.6001 0.060938 0.371662 -0.129967
2010-03-23 09:48:13 51°9.506 2°37.316 14.6068 0.060938 0.371677 -0.129967
2010-03-23 09:48:18 51°9.498 2°37.287 14.6035 0.060938 0.371677 -0.129967
2010-03-23 09:48:24 51°9.49 2°37.253 14.5795 0.060938 0.371685 -0.129967
2010-03-23 09:48:29 51°9.483 2°37.225 14.6063 0.060938 0.371685 -0.129967
2010-03-23 09:48:33 51°9.477 2°37.202 14.5521 0.060938 0.371685 -0.129967
2010-03-23 09:48:38 51°9.47 2°37.173 14.6099 0.060938 0.371693 -0.129967
2010-03-23 09:48:44 51°9.461 2°37.139 14.5655 0.060938 0.3717 -0.129967
2010-03-23 09:48:49 51°9.454 2°37.11 14.6231 0.060938 0.3717 -0.129967
2010-03-23 09:48:53 51°9.449 2°37.087 14.5966 0.060938 0.371708 -0.129967
2010-03-23 09:48:58 51°9.442 2°37.059 14.5646 0.060938 0.371708 -0.129967
2010-03-23 09:49:04 51°9.433 2°37.024 14.5668 0.060938 0.371715 -0.129967
2010-03-23 09:49:09 51°9.426 2°36.996 14.5785 0.060938 0.371715 -0.129967
2010-03-23 09:49:13 51°9.421 2°36.973 14.5833 0.060938 0.371723 -0.129967
2010-03-23 09:49:18 51°9.414 2°36.944 14.5793 0.060938 0.371731 -0.129967
2010-03-23 09:49:23 51°9.407 2°36.916 14.6013 0.060938 0.371731 -0.129967
2010-03-23 09:49:28 51°9.399 2°36.887 14.5902 0.060938 0.371731 -0.129967
2010-03-23 09:49:33 51°9.393 2°36.858 14.6035 0.060938 0.371738 -0.129967
2010-03-23 09:49:38 51°9.385 2°36.83 14.6394 0.060938 0.371746 -0.129967
2010-03-23 09:49:43 51°9.378 2°36.801 14.6064 0.060938 0.371746 -0.129967
2010-03-23 09:49:48 51°9.371 2°36.772 14.5931 0.060938 0.371754 -0.129967
2010-03-23 09:49:53 51°9.364 2°36.744 14.5951 0.060938 0.371754 -0.129967
2010-03-23 09:49:58 51°9.357 2°36.715 14.6238 0.060938 0.371754 -0.129967
2010-03-23 09:50:04 51°9.348 2°36.681 14.6267 0.060938 0.371769 -0.129967
2010-03-23 09:50:09 51°9.341 2°36.653 14.6418 0.060938 0.371769 -0.129967
2010-03-23 09:50:13 51°9.335 2°36.63 14.6189 0.060938 0.371776 -0.129967
2010-03-23 09:50:18 51°9.328 2°36.601 14.6254 0.060938 0.371784 -0.129967
2010-03-23 09:50:24 51°9.319 2°36.567 14.5884 0.060938 0.371776 -0.129967
2010-03-23 09:50:29 51°9.312 2°36.539 14.6028 0.060938 0.371776 -0.129967
2010-03-23 09:50:33 51°9.306 2°36.516 14.5726 0.060938 0.371792 -0.129967
2010-03-23 09:50:38 51°9.299 2°36.487 14.6293 0.060938 0.371792 -0.129967
2010-03-23 09:50:43 51°9.292 2°36.459 14.6291 0.060938 0.371799 -0.129967
2010-03-23 09:50:49 51°9.283 2°36.425 14.5594 0.060938 0.371807 -0.129967
2010-03-23 09:50:53 51°9.277 2°36.402 14.6304 0.060938 0.371807 -0.129967
2010-03-23 09:50:58 51°9.27 2°36.374 14.6296 0.060938 0.371807 -0.129967
2010-03-23 09:51:02 51°9.264 2°36.351 14.5847 0.060938 0.371814 -0.129967
2010-03-23 09:51:08 51°9.256 2°36.317 14.5934 0.060938 0.371822 -0.129967
2010-03-23 09:51:13 51°9.249 2°36.288 14.6447 0.060938 0.371822 -0.129967
2010-03-23 09:51:18 51°9.242 2°36.259 14.6433 0.060938 0.37183 -0.129967
2010-03-23 09:51:23 51°9.234 2°36.231 14.5473 0.060938 0.371837 -0.164791
2010-03-23 09:51:28 51°9.227 2°36.202 14.6462 0.060938 0.371837 -0.164791
2010-03-23 09:51:33 51°9.22 2°36.173 14.6145 0.060938 0.371837 -0.129967
2010-03-23 09:51:38 51°9.213 2°36.145 14.6143 0.060938 0.371837 -0.129967
2010-03-23 09:51:42 51°9.207 2°36.122 14.601 0.060938 0.371845 -0.129967
2010-03-23 09:51:49 51°9.197 2°36.082 14.6305 0.060938 0.371853 -0.129967
2010-03-23 09:51:53 51°9.191 2°36.059 14.5816 0.060938 0.37186 -0.129967
2010-03-23 09:51:58 51°9.184 2°36.031 14.6214 0.060938 0.37186 -0.129967
2010-03-23 09:52:03 51°9.177 2°36.002 14.6538 0.060938 0.37186 -0.129967
2010-03-23 09:52:08 51°9.17 2°35.974 14.6014 0.060938 0.371868 -0.129967
2010-03-23 09:52:14 51°9.161 2°35.939 14.6405 0.060938 0.371875 -0.129967
2010-03-23 09:52:18 51°9.156 2°35.916 14.6197 0.060938 0.371883 -0.129967
2010-03-23 09:52:24 51°9.147 2°35.882 14.6123 0.060835 0.371233 -0.129967
2010-03-23 09:52:28 51°9.141 2°35.859 14.6199 0.060835 0.371233 -0.129967
2010-03-23 09:52:33 51°9.134 2°35.83 14.6414 0.060938 0.371883 -0.129967
2010-03-23 09:52:38 51°9.127 2°35.801 14.6294 0.060938 0.371891 -0.129967
2010-03-23 09:52:43 51°9.12 2°35.772 14.562 0.060938 0.371898 -0.129967
2010-03-23 09:52:48 51°9.112 2°35.744 14.6367 0.060938 0.371898 -0.129967
2010-03-23 09:52:53 51°9.105 2°35.715 14.6424 0.060938 0.371906 -0.129967
2010-03-23 09:52:58 51°9.098 2°35.686 14.6317 0.060938 0.371906 -0.129967
2010-03-23 09:53:03 51°9.091 2°35.657 14.6433 0.060938 0.371913 -0.129967
2010-03-23 09:53:09 51°9.082 2°35.623 14.6544 0.060938 0.371913 -0.129967
2010-03-23 09:53:13 51°9.076 2°35.6 14.6179 0.060938 0.371921 -0.129967
2010-03-23 09:53:18 51°9.069 2°35.571 14.6424 0.060938 0.371921 -0.129967
2010-03-23 09:53:23 51°9.062 2°35.542 14.5929 0.060938 0.371929 -0.129967
2010-03-23 09:53:29 51°9.053 2°35.508 14.6437 0.060938 0.371929 -0.129967
2010-03-23 09:53:34 51°9.046 2°35.479 14.6358 0.060938 0.371936 -0.129967
2010-03-23 09:53:38 51°9.04 2°35.456 14.6328 0.060938 0.371944 -0.129967
2010-03-23 09:53:44 51°9.031 2°35.422 14.6576 0.060938 0.371944 -0.129967
2010-03-23 09:53:49 51°9.024 2°35.393 14.6317 0.060938 0.371952 -0.129967
2010-03-23 09:53:53 51°9.018 2°35.37 14.6615 0.060938 0.371959 -0.129967
2010-03-23 09:53:58 51°9.011 2°35.341 14.6578 0.060938 0.371959 -0.129967
2010-03-23 09:54:02 51°9.005 2°35.318 14.6165 0.060938 0.371959 -0.129967
2010-03-23 09:54:08 51°8.996 2°35.283 14.6435 0.060938 0.371967 -0.164791
2010-03-23 09:54:13 51°8.989 2°35.254 14.6387 0.060938 0.371974 -0.129967
2010-03-23 09:54:18 51°8.982 2°35.226 14.6369 0.060938 0.371974 -0.129967
2010-03-23 09:54:23 51°8.974 2°35.197 14.6441 0.060938 0.371974 -0.129967
2010-03-23 09:54:28 51°8.967 2°35.168 14.6568 0.060938 0.371974 -0.129967
2010-03-23 09:54:34 51°8.958 2°35.133 14.6439 0.060938 0.371982 -0.129967
2010-03-23 09:54:38 51°8.952 2°35.11 14.6919 0.060938 0.37199 -0.129967
2010-03-23 09:54:43 51°8.945 2°35.082 14.6898 0.060938 0.37199 -0.129967
2010-03-23 09:54:49 51°8.936 2°35.047 14.7075 0.060938 0.372005 -0.129967
2010-03-23 09:54:53 51°8.93 2°35.024 14.6966 0.060938 0.372005 -0.164791
2010-03-23 09:54:58 51°8.922 2°34.996 14.7266 0.060938 0.372005 -0.164791
2010-03-23 09:55:04 51°8.911 2°34.963 14.6581 0.060938 0.37202 -0.129967
2010-03-23 09:55:09 51°8.902 2°34.936 14.7062 0.060938 0.37202 -0.129967
2010-03-23 09:55:13 51°8.895 2°34.914 14.6747 0.060938 0.372028 -0.129967
2010-03-23 09:55:18 51°8.886 2°34.887 14.6967 0.060938 0.372028 -0.129967
2010-03-23 09:55:24 51°8.874 2°34.854 14.6606 0.060938 0.372028 -0.129967
2010-03-23 09:55:29 51°8.864 2°34.827 14.7138 0.060938 0.372028 -0.129967
2010-03-23 09:55:33 51°8.856 2°34.806 14.6612 0.060835 0.371393 -0.129967
2010-03-23 09:55:38 51°8.846 2°34.781 14.6582 0.060835 0.371393 -0.129967
2010-03-23 09:55:43 51°8.835 2°34.755 14.6749 0.060835 0.371401 -0.129967
2010-03-23 09:55:49 51°8.822 2°34.724 14.6624 0.060938 0.372051 -0.129967
2010-03-23 09:55:53 51°8.813 2°34.703 14.7064 0.060835 0.371401 -0.129967
2010-03-23 09:55:58 51°8.802 2°34.678 14.6731 0.060835 0.371401 -0.129967
2010-03-23 09:56:02 51°8.793 2°34.658 14.6801 0.060835 0.371408 -0.129967
2010-03-23 09:56:08 51°8.779 2°34.628 14.6234 0.060835 0.371416 -0.129967
2010-03-23 09:56:13 51°8.767 2°34.604 14.6548 0.060835 0.371416 -0.129967
2010-03-23 09:56:18 51°8.756 2°34.579 14.6638 0.060835 0.371424 -0.129967
2010-03-23 09:56:24 51°8.741 2°34.55 14.6833 0.060835 0.371431 -0.129967
2010-03-23 09:56:29 51°8.729 2°34.526 14.685 0.060835 0.371431 -0.129967
2010-03-23 09:56:34 51°8.717 2°34.502 14.6736 0.060835 0.371431 -0.129967
2010-03-23 09:56:38 51°8.707 2°34.483 14.693 0.060835 0.371439 -0.164791
2010-03-23 09:56:44 51°8.692 2°34.455 14.6497 0.060835 0.371447 -0.129967
2010-03-23 09:56:48 51°8.682 2°34.436 14.6785 0.060835 0.371447 -0.129967
2010-03-23 09:56:53 51°8.669 2°34.413 14.6602 0.060835 0.371454 -0.164791
2010-03-23 09:56:58 51°8.656 2°34.389 14.6728 0.060835 0.371454 -0.164791
2010-03-23 09:57:03 51°8.643 2°34.366 14.674 0.060835 0.371462 -0.129967
2010-03-23 09:57:09 51°8.628 2°34.338 14.646 0.060835 0.371462 -0.129967
2010-03-23 09:57:13 51°8.618 2°34.32 14.6378 0.060835 0.371469 -0.129967
2010-03-23 09:57:18 51°8.605 2°34.296 14.6768 0.060835 0.371477 -0.164791
2010-03-23 09:57:24 51°8.59 2°34.269 14.6637 0.060835 0.371477 -0.129967
2010-03-23 09:57:28 51°8.58 2°34.25 14.6678 0.060835 0.371477 -0.129967
2010-03-23 09:57:33 51°8.567 2°34.227 14.6876 0.060835 0.371485 -0.129967
2010-03-23 09:57:38 51°8.554 2°34.203 14.7114 0.060835 0.371492 -0.129967
2010-03-23 09:57:43 51°8.541 2°34.181 14.7204 0.060835 0.3715 -0.129967
2010-03-23 09:57:48 51°8.528 2°34.158 14.6917 0.060835 0.371507 -0.129967
2010-03-23 09:57:53 51°8.514 2°34.135 14.694 0.060835 0.371515 -0.129967
2010-03-23 09:57:58 51°8.501 2°34.113 14.6766 0.060835 0.371515 -0.129967
2010-03-23 09:58:02 51°8.49 2°34.095 14.7115 0.060835 0.371515 -0.164791
2010-03-23 09:58:09 51°8.472 2°34.064 14.6209 0.060835 0.371523 -0.164791
2010-03-23 09:58:13 51°8.461 2°34.047 14.6627 0.060835 0.371523 -0.129967
2010-03-23 09:58:18 51°8.448 2°34.025 14.6663 0.060835 0.37153 -0.129967
2010-03-23 09:58:23 51°8.435 2°34.004 14.6811 0.060835 0.371538 -0.129967
2010-03-23 09:58:28 51°8.422 2°33.984 14.69 0.060835 0.371538 -0.129967
2010-03-23 09:58:33 51°8.41 2°33.965 14.7476 0.060835 0.371546 -0.129967
2010-03-23 09:58:38 51°8.399 2°33.947 14.7466 0.060835 0.371553 -0.129967
2010-03-23 09:58:42 51°8.39 2°33.932 14.7357 0.060835 0.371553 -0.129967
2010-03-23 09:58:48 51°8.377 2°33.911 14.7436 0.060835 0.371561 -0.129967
2010-03-23 09:58:53 51°8.367 2°33.894 14.7495 0.060835 0.371568 -0.164791
2010-03-23 09:58:58 51°8.356 2°33.876 14.742 0.060835 0.371568 -0.164791
2010-03-23 09:59:04 51°8.344 2°33.856 14.744 0.060835 0.371568 -0.129967
2010-03-23 09:59:09 51°8.334 2°33.84 14.7544 0.060835 0.371568 -0.129967
2010-03-23 09:59:13 51°8.327 2°33.826 14.7505 0.060835 0.371576 -0.129967
2010-03-23 09:59:18 51°8.317 2°33.81 14.7579 0.060835 0.371576 -0.129967
2010-03-23 09:59:24 51°8.306 2°33.79 14.7589 0.060835 0.371584 -0.164791
2010-03-23 09:59:29 51°8.296 2°33.774 14.7499 0.060835 0.371584 -0.164791
2010-03-23 09:59:33 51°8.289 2°33.761 14.7515 0.060835 0.371591 -0.164791
2010-03-23 09:59:38 51°8.279 2°33.746 14.7503 0.060835 0.371599 -0.129967
2010-03-23 09:59:43 51°8.27 2°33.73 14.7567 0.060835 0.371599 -0.164791
2010-03-23 09:59:49 51°8.259 2°33.711 14.7502 0.060835 0.371607 -0.129967
2010-03-23 09:59:53 51°8.251 2°33.698 14.7664 0.060835 0.371614 -0.129967
2010-03-23 09:59:58 51°8.242 2°33.682 14.7437 0.060835 0.371614 -0.129967
2010-03-23 10:00:02 51°8.234 2°33.67 14.7517 0.060835 0.371614 -0.129967
2010-03-23 10:00:08 51°8.223 2°33.651 14.7441 0.060835 0.371622 -0.129967
2010-03-23 10:00:13 51°8.214 2°33.636 14.7633 0.060835 0.371629 -0.129967
2010-03-23 10:00:18 51°8.205 2°33.62 14.7727 0.060835 0.371637 -0.164791
2010-03-23 10:00:23 51°8.195 2°33.605 14.7661 0.060835 0.371637 -0.129967
2010-03-23 10:00:28 51°8.186 2°33.59 14.7627 0.060835 0.371637 -0.129967
2010-03-23 10:00:33 51°8.177 2°33.575 14.7605 0.060835 0.371637 -0.129967
2010-03-23 10:00:38 51°8.168 2°33.559 14.7513 0.060835 0.371645 -0.129967
2010-03-23 10:00:42 51°8.16 2°33.547 14.7602 0.060835 0.371645 -0.164791
2010-03-23 10:00:48 51°8.149 2°33.528 14.7603 0.060835 0.371652 -0.164791
2010-03-23 10:00:53 51°8.14 2°33.513 14.7745 0.060835 0.37166 -0.129967
2010-03-23 10:00:58 51°8.131 2°33.498 14.7648 0.060835 0.37166 -0.129967
2010-03-23 10:01:03 51°8.122 2°33.483 14.7632 0.060835 0.37166 -0.164791
2010-03-23 10:01:08 51°8.113 2°33.467 14.771 0.060835 0.371668 -0.129967
2010-03-23 10:01:14 51°8.102 2°33.449 14.7675 0.060835 0.371668 -0.164791
2010-03-23 10:01:18 51°8.095 2°33.437 14.7664 0.060835 0.371675 -0.164791
2010-03-23 10:01:24 51°8.084 2°33.418 14.7372 0.060835 0.371683 -0.129967
2010-03-23 10:01:28 51°8.077 2°33.406 14.7323 0.060835 0.371683 -0.129967
2010-03-23 10:01:33 51°8.069 2°33.391 14.758 0.060835 0.37169 -0.129967
2010-03-23 10:01:38 51°8.06 2°33.378 14.7734 0.060835 0.371698 -0.129967
2010-03-23 10:01:43 51°8.052 2°33.364 14.7746 0.060835 0.371706 -0.129967
2010-03-23 10:01:48 51°8.045 2°33.352 14.8141 0.060835 0.371713 -0.164791
2010-03-23 10:01:53 51°8.037 2°33.339 14.8081 0.060835 0.371713 -0.129967
2010-03-23 10:01:58 51°8.03 2°33.329 14.8118 0.060835 0.371713 -0.129967
2010-03-23 10:02:04 51°8.021 2°33.316 14.8074 0.060835 0.371721 -0.129967